Time,TemperatureF,DewpointF,PressureIn,WindDirection,WindDirectionDegrees,WindSpeedMPH,WindSpeedGustMPH,Humidity,HourlyPrecipIn,Conditions,Clouds,dailyrainin,SoftwareType,DateUTC
2014-02-09 00:01:00,36.3,23.0,25.26,South,182,3.0,5.0,58,0.00,,,0.00,meteohub,2014-02-09 08:01:00,
2014-02-09 00:02:00,36.3,23.0,25.26,SSW,199,3.0,5.0,58,0.00,,,0.00,meteohub,2014-02-09 08:02:00,
2014-02-09 00:03:00,36.3,23.0,25.26,South,179,5.0,5.0,58,0.00,,,0.00,meteohub,2014-02-09 08:03:00,
2014-02-09 00:07:00,36.5,22.3,25.26,WSW,249,5.0,13.0,56,0.00,,,0.00,meteohub,2014-02-09 08:07:00,
2014-02-09 00:08:00,36.7,22.1,25.26,SW,222,3.0,13.0,55,0.00,,,0.00,meteohub,2014-02-09 08:08:00,
2014-02-09 00:09:00,36.7,22.1,25.26,WNW,286,10.0,13.0,55,0.00,,,0.00,meteohub,2014-02-09 08:09:00,
2014-02-09 00:11:00,36.7,21.6,25.26,SSW,196,6.0,13.0,54,0.00,,,0.00,meteohub,2014-02-09 08:11:00,
2014-02-09 00:12:00,36.7,21.6,25.26,SW,223,6.0,13.0,54,0.00,,,0.00,meteohub,2014-02-09 08:12:00,
2014-02-09 00:14:00,36.7,21.2,25.26,WSW,257,5.0,13.0,53,0.00,,,0.00,meteohub,2014-02-09 08:14:00,
2014-02-09 00:16:00,36.7,21.2,25.26,SW,234,5.0,13.0,53,0.00,,,0.00,meteohub,2014-02-09 08:16:00,
2014-02-09 00:18:00,36.7,20.7,25.26,SW,231,5.0,13.0,52,0.00,,,0.00,meteohub,2014-02-09 08:18:00,
2014-02-09 00:19:00,36.7,20.3,25.26,WNW,294,8.0,13.0,51,0.00,,,0.00,meteohub,2014-02-09 08:19:00,
2014-02-09 00:20:00,36.7,19.8,25.26,WSW,249,6.0,10.0,50,0.00,,,0.00,meteohub,2014-02-09 08:20:00,
2014-02-09 00:22:00,36.9,20.5,25.26,SSW,205,4.0,10.0,51,0.00,,,0.00,meteohub,2014-02-09 08:22:00,
2014-02-09 00:26:00,36.9,19.4,25.26,WSW,240,6.0,8.0,49,0.00,,,0.00,meteohub,2014-02-09 08:26:00,
2014-02-09 00:27:00,36.9,19.4,25.26,SSW,196,4.0,8.0,49,0.00,,,0.00,meteohub,2014-02-09 08:27:00,
2014-02-09 00:31:00,36.9,19.9,25.26,SW,223,2.0,8.0,50,0.00,,,0.00,meteohub,2014-02-09 08:31:00,
2014-02-09 00:32:00,36.9,19.4,25.26,WSW,239,5.0,8.0,49,0.00,,,0.00,meteohub,2014-02-09 08:32:00,
2014-02-09 00:33:00,36.9,19.4,25.26,SSW,211,5.0,8.0,49,0.00,,,0.00,meteohub,2014-02-09 08:33:00,
2014-02-09 00:34:00,36.9,19.9,25.26,WSW,251,3.0,8.0,50,0.00,,,0.00,meteohub,2014-02-09 08:34:00,
2014-02-09 00:36:00,37.0,20.1,25.26,SE,146,4.0,8.0,50,0.00,,,0.00,meteohub,2014-02-09 08:36:00,
2014-02-09 00:37:00,36.9,19.9,25.26,SSW,198,4.0,8.0,50,0.00,,,0.00,meteohub,2014-02-09 08:37:00,
2014-02-09 00:40:00,36.9,19.9,25.26,SW,232,3.0,8.0,50,0.00,,,0.00,meteohub,2014-02-09 08:40:00,
2014-02-09 00:42:00,36.9,19.9,25.26,SE,138,3.0,8.0,50,0.00,,,0.00,meteohub,2014-02-09 08:42:00,
2014-02-09 00:44:00,36.9,19.9,25.26,SSW,201,4.0,8.0,50,0.00,,,0.00,meteohub,2014-02-09 08:44:00,
2014-02-09 00:46:00,36.9,19.9,25.26,SW,226,4.0,8.0,50,0.00,,,0.00,meteohub,2014-02-09 08:46:00,
2014-02-09 00:47:00,36.9,19.9,25.26,SSW,206,4.0,8.0,50,0.00,,,0.00,meteohub,2014-02-09 08:47:00,
2014-02-09 00:49:00,36.9,19.9,25.26,South,187,5.0,8.0,50,0.00,,,0.00,meteohub,2014-02-09 08:49:00,
2014-02-09 00:51:00,36.7,19.8,25.26,WSW,238,5.0,7.0,50,0.00,,,0.00,meteohub,2014-02-09 08:51:00,
2014-02-09 00:52:00,36.7,19.8,25.26,WSW,238,5.0,7.0,50,0.00,,,0.00,meteohub,2014-02-09 08:52:00,
2014-02-09 00:55:00,36.7,19.8,25.26,SW,229,3.0,7.0,50,0.00,,,0.00,meteohub,2014-02-09 08:55:00,
2014-02-09 00:57:00,36.7,19.8,25.26,SSW,210,2.0,8.0,50,0.00,,,0.00,meteohub,2014-02-09 08:57:00,
2014-02-09 00:58:00,36.7,19.8,25.26,SSE,154,3.0,8.0,50,0.00,,,0.00,meteohub,2014-02-09 08:58:00,
2014-02-09 01:03:00,36.5,19.6,25.26,SSW,207,4.0,8.0,50,0.00,,,0.00,meteohub,2014-02-09 09:03:00,
2014-02-09 01:04:00,36.5,19.6,25.26,SW,231,3.0,8.0,50,0.00,,,0.00,meteohub,2014-02-09 09:04:00,
2014-02-09 01:05:00,36.5,19.6,25.26,SW,229,3.0,8.0,50,0.00,,,0.00,meteohub,2014-02-09 09:05:00,
2014-02-09 01:07:00,36.5,19.6,25.26,SW,228,3.0,8.0,50,0.00,,,0.00,meteohub,2014-02-09 09:07:00,
2014-02-09 01:09:00,36.3,19.4,25.26,SSW,205,4.0,8.0,50,0.00,,,0.00,meteohub,2014-02-09 09:09:00,
2014-02-09 01:10:00,36.3,19.4,25.26,SW,236,2.0,5.0,50,0.00,,,0.00,meteohub,2014-02-09 09:10:00,
2014-02-09 01:12:00,36.3,19.4,25.26,SW,236,0.0,5.0,50,0.00,,,0.00,meteohub,2014-02-09 09:12:00,
2014-02-09 01:13:00,36.3,19.4,25.26,WSW,239,2.0,5.0,50,0.00,,,0.00,meteohub,2014-02-09 09:13:00,
2014-02-09 01:14:00,36.3,19.4,25.26,SW,227,3.0,5.0,50,0.00,,,0.00,meteohub,2014-02-09 09:14:00,
2014-02-09 01:16:00,36.3,19.4,25.26,WSW,246,4.0,6.0,50,0.00,,,0.00,meteohub,2014-02-09 09:16:00,
2014-02-09 01:17:00,36.3,19.4,25.26,South,189,3.0,6.0,50,0.00,,,0.00,meteohub,2014-02-09 09:17:00,
2014-02-09 01:19:00,36.3,19.4,25.26,SW,230,3.0,6.0,50,0.00,,,0.00,meteohub,2014-02-09 09:19:00,
2014-02-09 01:21:00,36.3,19.4,25.26,SW,218,4.0,6.0,50,0.00,,,0.00,meteohub,2014-02-09 09:21:00,
2014-02-09 01:22:00,36.3,19.4,25.26,SSW,199,4.0,6.0,50,0.00,,,0.00,meteohub,2014-02-09 09:22:00,
2014-02-09 01:24:00,36.3,19.4,25.29,South,185,5.0,6.0,50,0.00,,,0.00,meteohub,2014-02-09 09:24:00,
2014-02-09 01:26:00,36.3,19.4,25.29,SW,225,3.0,5.0,50,0.00,,,0.00,meteohub,2014-02-09 09:26:00,
2014-02-09 01:27:00,36.3,19.4,25.29,SW,225,3.0,5.0,50,0.00,,,0.00,meteohub,2014-02-09 09:27:00,
2014-02-09 01:30:00,36.3,19.4,25.29,SW,216,3.0,6.0,50,0.00,,,0.00,meteohub,2014-02-09 09:30:00,
2014-02-09 01:31:00,36.3,19.4,25.29,South,174,3.0,6.0,50,0.00,,,0.00,meteohub,2014-02-09 09:31:00,
2014-02-09 01:32:00,36.3,19.4,25.29,SW,227,4.0,6.0,50,0.00,,,0.00,meteohub,2014-02-09 09:32:00,
2014-02-09 01:34:00,36.3,19.4,25.29,SW,222,4.0,6.0,50,0.00,,,0.00,meteohub,2014-02-09 09:34:00,
2014-02-09 01:37:00,36.3,19.4,25.29,SW,222,2.0,6.0,50,0.00,,,0.00,meteohub,2014-02-09 09:37:00,
2014-02-09 01:40:00,36.1,19.2,25.29,SSW,207,6.0,6.0,50,0.00,,,0.00,meteohub,2014-02-09 09:40:00,
2014-02-09 01:41:00,36.1,19.2,25.29,WSW,254,3.0,6.0,50,0.00,,,0.00,meteohub,2014-02-09 09:41:00,
2014-02-09 01:42:00,36.3,19.4,25.29,WSW,244,4.0,6.0,50,0.00,,,0.00,meteohub,2014-02-09 09:42:00,
2014-02-09 01:44:00,36.3,19.4,25.29,SW,231,2.0,6.0,50,0.00,,,0.00,meteohub,2014-02-09 09:44:00,
2014-02-09 01:47:00,36.3,19.4,25.29,SW,222,0.0,6.0,50,0.00,,,0.00,meteohub,2014-02-09 09:47:00,
2014-02-09 01:48:00,36.3,19.4,25.29,South,171,4.0,6.0,50,0.00,,,0.00,meteohub,2014-02-09 09:48:00,
2014-02-09 01:49:00,36.3,19.4,25.29,SW,214,3.0,6.0,50,0.00,,,0.00,meteohub,2014-02-09 09:49:00,
2014-02-09 01:52:00,36.3,19.4,25.29,SW,217,3.0,6.0,50,0.00,,,0.00,meteohub,2014-02-09 09:52:00,
2014-02-09 01:53:00,36.1,19.2,25.29,SW,216,4.0,6.0,50,0.00,,,0.00,meteohub,2014-02-09 09:53:00,
2014-02-09 01:54:00,36.1,19.2,25.29,SW,235,2.0,6.0,50,0.00,,,0.00,meteohub,2014-02-09 09:54:00,
2014-02-09 01:55:00,36.1,19.2,25.29,SW,223,2.0,6.0,50,0.00,,,0.00,meteohub,2014-02-09 09:55:00,
2014-02-09 02:00:00,36.1,19.2,25.29,SSW,195,3.0,6.0,50,0.00,,,0.00,meteohub,2014-02-09 10:00:00,
2014-02-09 02:01:00,36.1,19.2,25.29,SSW,196,2.0,6.0,50,0.00,,,0.00,meteohub,2014-02-09 10:01:00,
2014-02-09 02:02:00,36.1,19.2,25.29,SSW,198,0.0,6.0,50,0.00,,,0.00,meteohub,2014-02-09 10:02:00,
2014-02-09 02:03:00,36.1,19.2,25.29,SSW,201,3.0,6.0,50,0.00,,,0.00,meteohub,2014-02-09 10:03:00,
2014-02-09 02:06:00,36.1,19.2,25.29,SSW,201,0.0,6.0,50,0.00,,,0.00,meteohub,2014-02-09 10:06:00,
2014-02-09 02:07:00,36.1,19.2,25.29,SSW,201,2.0,6.0,50,0.00,,,0.00,meteohub,2014-02-09 10:07:00,
2014-02-09 02:10:00,36.0,19.0,25.29,SSW,201,2.0,6.0,50,0.00,,,0.00,meteohub,2014-02-09 10:10:00,
2014-02-09 02:11:00,36.0,19.0,25.29,SSW,201,0.0,6.0,50,0.00,,,0.00,meteohub,2014-02-09 10:11:00,
2014-02-09 02:12:00,35.8,19.0,25.29,SSW,201,0.0,6.0,50,0.00,,,0.00,meteohub,2014-02-09 10:12:00,
2014-02-09 02:13:00,35.8,19.0,25.29,SSW,201,0.0,6.0,50,0.00,,,0.00,meteohub,2014-02-09 10:13:00,
2014-02-09 02:15:00,35.8,19.0,25.29,SSW,201,0.0,4.0,50,0.00,,,0.00,meteohub,2014-02-09 10:15:00,
2014-02-09 02:17:00,35.6,18.9,25.29,SSW,201,0.0,4.0,50,0.00,,,0.00,meteohub,2014-02-09 10:17:00,
2014-02-09 02:18:00,35.6,18.9,25.29,SSW,201,0.0,4.0,50,0.00,,,0.00,meteohub,2014-02-09 10:18:00,
2014-02-09 02:21:00,35.4,18.7,25.29,SSW,201,0.0,3.0,50,0.00,,,0.00,meteohub,2014-02-09 10:21:00,
2014-02-09 02:23:00,35.4,18.7,25.29,SSW,200,0.0,3.0,50,0.00,,,0.00,meteohub,2014-02-09 10:23:00,
2014-02-09 02:24:00,35.2,18.5,25.29,SSW,201,0.0,3.0,50,0.00,,,0.00,meteohub,2014-02-09 10:24:00,
2014-02-09 02:27:00,35.1,18.3,25.29,SSW,201,0.0,2.0,50,0.00,,,0.00,meteohub,2014-02-09 10:27:00,
2014-02-09 02:29:00,35.1,18.3,25.29,South,190,0.0,2.0,50,0.00,,,0.00,meteohub,2014-02-09 10:29:00,
2014-02-09 02:30:00,35.1,18.3,25.29,South,190,0.0,0.0,50,0.00,,,0.00,meteohub,2014-02-09 10:30:00,
2014-02-09 02:31:00,35.1,18.3,25.29,SSE,162,4.0,0.0,50,0.00,,,0.00,meteohub,2014-02-09 10:31:00,
2014-02-09 02:32:00,35.1,18.3,25.29,South,178,4.0,0.0,50,0.00,,,0.00,meteohub,2014-02-09 10:32:00,
2014-02-09 02:36:00,35.1,18.7,25.29,South,178,4.0,4.0,51,0.00,,,0.00,meteohub,2014-02-09 10:36:00,
2014-02-09 02:37:00,35.1,18.7,25.29,South,178,3.0,4.0,51,0.00,,,0.00,meteohub,2014-02-09 10:37:00,
2014-02-09 02:38:00,35.1,18.7,25.29,South,178,0.0,4.0,51,0.00,,,0.00,meteohub,2014-02-09 10:38:00,
2014-02-09 02:39:00,35.1,18.7,25.29,South,178,0.0,4.0,51,0.00,,,0.00,meteohub,2014-02-09 10:39:00,
2014-02-09 02:41:00,35.1,18.7,25.29,South,178,0.0,4.0,51,0.00,,,0.00,meteohub,2014-02-09 10:41:00,
2014-02-09 02:42:00,35.1,18.7,25.29,South,178,0.0,4.0,51,0.00,,,0.00,meteohub,2014-02-09 10:42:00,
2014-02-09 02:44:00,35.1,18.7,25.29,South,178,0.0,4.0,51,0.00,,,0.00,meteohub,2014-02-09 10:44:00,
2014-02-09 02:46:00,35.1,18.7,25.29,South,178,0.0,4.0,51,0.00,,,0.00,meteohub,2014-02-09 10:46:00,
2014-02-09 02:47:00,35.1,18.7,25.29,South,184,3.0,4.0,51,0.00,,,0.00,meteohub,2014-02-09 10:47:00,
2014-02-09 02:48:00,35.2,18.9,25.29,SW,221,3.0,4.0,51,0.00,,,0.00,meteohub,2014-02-09 10:48:00,
2014-02-09 02:50:00,35.2,18.9,25.29,ESE,123,3.0,4.0,51,0.00,,,0.00,meteohub,2014-02-09 10:50:00,
2014-02-09 02:51:00,35.2,18.9,25.29,SE,124,0.0,4.0,51,0.00,,,0.00,meteohub,2014-02-09 10:51:00,
2014-02-09 02:53:00,35.4,19.0,25.29,SE,124,0.0,4.0,51,0.00,,,0.00,meteohub,2014-02-09 10:53:00,
2014-02-09 02:54:00,35.4,19.0,25.29,SE,124,0.0,4.0,51,0.00,,,0.00,meteohub,2014-02-09 10:54:00,
2014-02-09 02:55:00,35.4,19.0,25.29,SSW,208,4.0,4.0,51,0.00,,,0.00,meteohub,2014-02-09 10:55:00,
2014-02-09 02:57:00,35.4,19.0,25.29,SW,224,2.0,4.0,51,0.00,,,0.00,meteohub,2014-02-09 10:57:00,
2014-02-09 03:00:00,35.6,19.2,25.29,SW,225,0.0,6.0,51,0.00,,,0.00,meteohub,2014-02-09 11:00:00,
2014-02-09 03:02:00,35.6,19.2,25.29,SW,225,0.0,6.0,51,0.00,,,0.00,meteohub,2014-02-09 11:02:00,
2014-02-09 03:04:00,35.6,19.2,25.29,SSW,198,3.0,6.0,51,0.00,,,0.00,meteohub,2014-02-09 11:04:00,
2014-02-09 03:06:00,35.6,19.2,25.29,South,191,0.0,6.0,51,0.00,,,0.00,meteohub,2014-02-09 11:06:00,
2014-02-09 03:08:00,35.6,19.2,25.29,South,191,2.0,6.0,51,0.00,,,0.00,meteohub,2014-02-09 11:08:00,
2014-02-09 03:10:00,35.6,19.2,25.26,South,188,3.0,6.0,51,0.00,,,0.00,meteohub,2014-02-09 11:10:00,
2014-02-09 03:12:00,35.6,18.9,25.26,SSW,213,2.0,6.0,50,0.00,,,0.00,meteohub,2014-02-09 11:12:00,
2014-02-09 03:14:00,35.6,19.2,25.26,South,182,3.0,6.0,51,0.00,,,0.00,meteohub,2014-02-09 11:14:00,
2014-02-09 03:17:00,35.6,19.2,25.26,South,182,0.0,4.0,51,0.00,,,0.00,meteohub,2014-02-09 11:17:00,
2014-02-09 03:22:00,35.6,18.9,25.26,SSW,206,0.0,4.0,50,0.00,,,0.00,meteohub,2014-02-09 11:22:00,
2014-02-09 03:23:00,35.6,19.2,25.29,South,184,3.0,4.0,51,0.00,,,0.00,meteohub,2014-02-09 11:23:00,
2014-02-09 03:24:00,35.6,19.2,25.29,South,184,3.0,4.0,51,0.00,,,0.00,meteohub,2014-02-09 11:24:00,
2014-02-09 03:27:00,35.6,19.2,25.29,SSW,196,2.0,4.0,51,0.00,,,0.00,meteohub,2014-02-09 11:27:00,
2014-02-09 03:28:00,35.6,19.2,25.29,SSW,212,0.0,4.0,51,0.00,,,0.00,meteohub,2014-02-09 11:28:00,
2014-02-09 03:29:00,35.6,19.2,25.29,SSW,207,0.0,4.0,51,0.00,,,0.00,meteohub,2014-02-09 11:29:00,
2014-02-09 03:30:00,35.6,19.2,25.29,SSW,207,0.0,4.0,51,0.00,,,0.00,meteohub,2014-02-09 11:30:00,
2014-02-09 03:32:00,35.6,19.2,25.29,SSW,207,0.0,4.0,51,0.00,,,0.00,meteohub,2014-02-09 11:32:00,
2014-02-09 03:33:00,35.6,19.2,25.29,SSW,207,0.0,4.0,51,0.00,,,0.00,meteohub,2014-02-09 11:33:00,
2014-02-09 03:35:00,35.6,18.9,25.29,SSW,207,0.0,4.0,50,0.00,,,0.00,meteohub,2014-02-09 11:35:00,
2014-02-09 03:37:00,35.6,18.9,25.29,SSW,207,0.0,4.0,50,0.00,,,0.00,meteohub,2014-02-09 11:37:00,
2014-02-09 03:39:00,35.6,18.9,25.26,South,182,0.0,4.0,50,0.00,,,0.00,meteohub,2014-02-09 11:39:00,
2014-02-09 03:41:00,35.6,18.9,25.26,South,182,0.0,3.0,50,0.00,,,0.00,meteohub,2014-02-09 11:41:00,
2014-02-09 03:42:00,35.6,18.9,25.26,South,182,0.0,3.0,50,0.00,,,0.00,meteohub,2014-02-09 11:42:00,
2014-02-09 03:43:00,35.6,18.9,25.26,South,182,0.0,3.0,50,0.00,,,0.00,meteohub,2014-02-09 11:43:00,
2014-02-09 03:45:00,35.6,18.9,25.26,SSE,157,3.0,3.0,50,0.00,,,0.00,meteohub,2014-02-09 11:45:00,
2014-02-09 03:47:00,35.6,18.9,25.26,SSE,157,0.0,3.0,50,0.00,,,0.00,meteohub,2014-02-09 11:47:00,
2014-02-09 03:49:00,35.6,18.9,25.26,SSE,157,2.0,3.0,50,0.00,,,0.00,meteohub,2014-02-09 11:49:00,
2014-02-09 03:50:00,35.6,18.9,25.26,SSE,157,0.0,4.0,50,0.00,,,0.00,meteohub,2014-02-09 11:50:00,
2014-02-09 03:51:00,35.6,18.9,25.26,SSE,157,0.0,4.0,50,0.00,,,0.00,meteohub,2014-02-09 11:51:00,
2014-02-09 03:52:00,35.6,18.9,25.26,SSE,157,0.0,4.0,50,0.00,,,0.00,meteohub,2014-02-09 11:52:00,
2014-02-09 03:55:00,35.6,18.9,25.26,SW,218,0.0,4.0,50,0.00,,,0.00,meteohub,2014-02-09 11:55:00,
2014-02-09 03:57:00,35.6,18.9,25.26,South,187,0.0,4.0,50,0.00,,,0.00,meteohub,2014-02-09 11:57:00,
2014-02-09 03:58:00,35.6,18.9,25.26,South,187,0.0,4.0,50,0.00,,,0.00,meteohub,2014-02-09 11:58:00,
2014-02-09 03:59:00,35.6,18.9,25.26,South,187,0.0,4.0,50,0.00,,,0.00,meteohub,2014-02-09 11:59:00,
2014-02-09 04:00:00,35.6,18.9,25.26,South,187,0.0,4.0,50,0.00,,,0.00,meteohub,2014-02-09 12:00:00,
2014-02-09 04:01:00,35.6,18.9,25.26,South,187,0.0,4.0,50,0.00,,,0.00,meteohub,2014-02-09 12:01:00,
2014-02-09 04:02:00,35.6,18.9,25.26,South,187,0.0,4.0,50,0.00,,,0.00,meteohub,2014-02-09 12:02:00,
2014-02-09 04:05:00,35.6,18.9,25.26,South,169,4.0,4.0,50,0.00,,,0.00,meteohub,2014-02-09 12:05:00,
2014-02-09 04:07:00,35.6,18.9,25.26,SSW,211,3.0,4.0,50,0.00,,,0.00,meteohub,2014-02-09 12:07:00,
2014-02-09 04:10:00,35.8,19.0,25.29,SSW,209,0.0,4.0,50,0.00,,,0.00,meteohub,2014-02-09 12:10:00,
2014-02-09 04:13:00,35.8,19.0,25.29,SSW,209,0.0,4.0,50,0.00,,,0.00,meteohub,2014-02-09 12:13:00,
2014-02-09 04:15:00,35.8,19.0,25.29,SSW,210,0.0,4.0,50,0.00,,,0.00,meteohub,2014-02-09 12:15:00,
2014-02-09 04:16:00,35.8,19.0,25.29,SSW,212,0.0,4.0,50,0.00,,,0.00,meteohub,2014-02-09 12:16:00,
2014-02-09 04:18:00,35.8,19.0,25.29,SSW,212,0.0,4.0,50,0.00,,,0.00,meteohub,2014-02-09 12:18:00,
2014-02-09 04:19:00,35.8,19.0,25.29,SSW,212,0.0,4.0,50,0.00,,,0.00,meteohub,2014-02-09 12:19:00,
2014-02-09 04:20:00,35.8,19.0,25.29,SSW,212,0.0,4.0,50,0.00,,,0.00,meteohub,2014-02-09 12:20:00,
2014-02-09 04:21:00,35.8,19.0,25.29,SSW,212,0.0,4.0,50,0.00,,,0.00,meteohub,2014-02-09 12:21:00,
2014-02-09 04:22:00,35.8,19.0,25.29,SSW,212,0.0,4.0,50,0.00,,,0.00,meteohub,2014-02-09 12:22:00,
2014-02-09 04:25:00,35.8,19.0,25.29,SSW,212,0.0,0.0,50,0.00,,,0.00,meteohub,2014-02-09 12:25:00,
2014-02-09 04:27:00,35.6,18.9,25.29,SSW,212,0.0,0.0,50,0.00,,,0.00,meteohub,2014-02-09 12:27:00,
2014-02-09 04:28:00,35.6,18.9,25.29,SSW,212,0.0,0.0,50,0.00,,,0.00,meteohub,2014-02-09 12:28:00,
2014-02-09 04:37:00,35.6,18.9,25.29,SSW,212,0.0,3.0,50,-99.99,,,0.00,meteohub,2014-02-09 12:37:00,
2014-02-09 04:38:00,35.6,18.9,25.29,SSW,212,0.0,3.0,50,-99.99,,,0.00,meteohub,2014-02-09 12:38:00,
2014-02-09 04:39:00,35.6,18.9,25.29,SSW,212,0.0,3.0,50,-99.99,,,0.00,meteohub,2014-02-09 12:39:00,
2014-02-09 04:42:00,35.4,19.0,25.29,SSW,203,0.0,3.0,51,0.00,,,0.00,meteohub,2014-02-09 12:42:00,
2014-02-09 04:43:00,35.4,19.0,25.29,SSW,204,0.0,3.0,51,0.00,,,0.00,meteohub,2014-02-09 12:43:00,
2014-02-09 04:44:00,35.4,19.0,25.29,SSW,195,0.0,3.0,51,0.00,,,0.00,meteohub,2014-02-09 12:44:00,
2014-02-09 04:45:00,35.4,19.0,25.29,South,182,0.0,3.0,51,0.00,,,0.00,meteohub,2014-02-09 12:45:00,
2014-02-09 04:47:00,35.4,19.0,25.29,South,179,0.0,3.0,51,0.00,,,0.00,meteohub,2014-02-09 12:47:00,
2014-02-09 04:48:00,35.4,19.0,25.29,SSE,168,4.0,4.0,51,0.00,,,0.00,meteohub,2014-02-09 12:48:00,
2014-02-09 04:49:00,35.4,19.0,25.29,South,169,5.0,5.0,51,0.00,,,0.00,meteohub,2014-02-09 12:49:00,
2014-02-09 04:50:00,35.4,19.0,25.29,SSE,167,4.0,5.0,51,0.00,,,0.00,meteohub,2014-02-09 12:50:00,
2014-02-09 04:51:00,35.4,19.0,25.29,SSE,154,4.0,5.0,51,0.00,,,0.00,meteohub,2014-02-09 12:51:00,
2014-02-09 04:52:00,35.4,19.0,25.29,SSE,151,5.0,5.0,51,0.00,,,0.00,meteohub,2014-02-09 12:52:00,
2014-02-09 04:55:00,35.4,19.0,25.26,SSE,153,4.0,5.0,51,0.00,,,0.00,meteohub,2014-02-09 12:55:00,
2014-02-09 04:57:00,35.4,19.0,25.26,South,175,4.0,5.0,51,0.00,,,0.00,meteohub,2014-02-09 12:57:00,
2014-02-09 04:58:00,35.6,19.2,25.26,SSW,203,4.0,5.0,51,0.00,,,0.00,meteohub,2014-02-09 12:58:00,
2014-02-09 05:01:00,35.6,19.2,25.26,South,173,0.0,6.0,51,0.00,,,0.00,meteohub,2014-02-09 13:01:00,
2014-02-09 05:02:00,35.6,19.2,25.26,South,173,0.0,6.0,51,0.00,,,0.00,meteohub,2014-02-09 13:02:00,
2014-02-09 05:03:00,35.6,19.2,25.26,South,173,0.0,6.0,51,0.00,,,0.00,meteohub,2014-02-09 13:03:00,
2014-02-09 05:04:00,35.6,19.2,25.26,South,173,0.0,6.0,51,0.00,,,0.00,meteohub,2014-02-09 13:04:00,
2014-02-09 05:05:00,35.6,19.2,25.26,South,173,0.0,6.0,51,0.00,,,0.00,meteohub,2014-02-09 13:05:00,
2014-02-09 05:07:00,35.6,19.2,25.26,South,176,0.0,6.0,51,0.00,,,0.00,meteohub,2014-02-09 13:07:00,
2014-02-09 05:09:00,35.6,19.2,25.26,South,175,0.0,6.0,51,0.00,,,0.00,meteohub,2014-02-09 13:09:00,
2014-02-09 05:11:00,35.6,19.2,25.26,SW,215,3.0,6.0,51,0.00,,,0.00,meteohub,2014-02-09 13:11:00,
2014-02-09 05:12:00,35.6,19.2,25.26,SW,217,3.0,6.0,51,0.00,,,0.00,meteohub,2014-02-09 13:12:00,
2014-02-09 05:14:00,35.6,19.2,25.26,SSW,204,0.0,6.0,51,0.00,,,0.00,meteohub,2014-02-09 13:14:00,
2014-02-09 05:15:00,35.6,19.2,25.26,SSW,204,0.0,5.0,51,0.00,,,0.00,meteohub,2014-02-09 13:15:00,
2014-02-09 05:17:00,35.6,19.2,25.26,SSE,156,3.0,5.0,51,0.00,,,0.00,meteohub,2014-02-09 13:17:00,
2014-02-09 05:21:00,35.6,19.2,25.26,South,179,3.0,5.0,51,0.00,,,0.00,meteohub,2014-02-09 13:21:00,
2014-02-09 05:22:00,35.6,19.2,25.26,South,170,4.0,5.0,51,0.00,,,0.00,meteohub,2014-02-09 13:22:00,
2014-02-09 05:27:00,35.8,19.4,25.29,SSE,163,2.0,5.0,51,0.00,,,0.00,meteohub,2014-02-09 13:27:00,
2014-02-09 05:28:00,35.8,19.4,25.29,SSE,163,0.0,5.0,51,0.00,,,0.00,meteohub,2014-02-09 13:28:00,
2014-02-09 05:29:00,35.8,19.4,25.29,SSE,163,3.0,5.0,51,0.00,,,0.00,meteohub,2014-02-09 13:29:00,
2014-02-09 05:31:00,35.8,19.4,25.29,South,170,4.0,5.0,51,0.00,,,0.00,meteohub,2014-02-09 13:31:00,
2014-02-09 05:32:00,35.8,19.4,25.29,South,170,3.0,5.0,51,0.00,,,0.00,meteohub,2014-02-09 13:32:00,
2014-02-09 05:33:00,35.8,19.4,25.29,South,170,3.0,5.0,51,0.00,,,0.00,meteohub,2014-02-09 13:33:00,
2014-02-09 05:35:00,35.8,19.4,25.29,SSW,200,0.0,5.0,51,0.00,,,0.00,meteohub,2014-02-09 13:35:00,
2014-02-09 05:36:00,35.8,19.4,25.29,SSW,209,2.0,5.0,51,0.00,,,0.00,meteohub,2014-02-09 13:36:00,
2014-02-09 05:37:00,35.8,19.4,25.29,SSW,208,0.0,5.0,51,0.00,,,0.00,meteohub,2014-02-09 13:37:00,
2014-02-09 05:38:00,35.8,19.4,25.29,SSW,210,3.0,5.0,51,0.00,,,0.00,meteohub,2014-02-09 13:38:00,
2014-02-09 05:41:00,35.8,19.4,25.29,South,176,4.0,5.0,51,0.00,,,0.00,meteohub,2014-02-09 13:41:00,
2014-02-09 05:42:00,35.8,19.4,25.29,South,175,4.0,5.0,51,0.00,,,0.00,meteohub,2014-02-09 13:42:00,
2014-02-09 05:43:00,36.0,19.6,25.29,South,175,3.0,5.0,51,0.00,,,0.00,meteohub,2014-02-09 13:43:00,
2014-02-09 05:44:00,36.0,19.6,25.29,South,172,3.0,5.0,51,0.00,,,0.00,meteohub,2014-02-09 13:44:00,
2014-02-09 05:46:00,36.0,19.6,25.29,South,172,3.0,5.0,51,0.00,,,0.00,meteohub,2014-02-09 13:46:00,
2014-02-09 05:47:00,36.0,19.6,25.29,South,172,4.0,5.0,51,0.00,,,0.00,meteohub,2014-02-09 13:47:00,
2014-02-09 05:48:00,36.0,19.6,25.29,South,172,0.0,5.0,51,0.00,,,0.00,meteohub,2014-02-09 13:48:00,
2014-02-09 05:52:00,36.0,19.6,25.29,WSW,249,4.0,4.0,51,0.00,,,0.00,meteohub,2014-02-09 13:52:00,
2014-02-09 05:53:00,36.0,19.6,25.29,South,173,4.0,4.0,51,0.00,,,0.00,meteohub,2014-02-09 13:53:00,
2014-02-09 05:54:00,36.0,19.6,25.29,South,173,3.0,4.0,51,0.00,,,0.00,meteohub,2014-02-09 13:54:00,
2014-02-09 05:55:00,36.0,19.6,25.29,South,173,3.0,4.0,51,0.00,,,0.00,meteohub,2014-02-09 13:55:00,
2014-02-09 05:56:00,36.0,19.6,25.29,South,173,3.0,4.0,51,0.00,,,0.00,meteohub,2014-02-09 13:56:00,
2014-02-09 05:57:00,36.0,19.6,25.29,South,173,3.0,4.0,51,0.00,,,0.00,meteohub,2014-02-09 13:57:00,
2014-02-09 06:01:00,36.0,19.6,25.29,SSE,163,0.0,4.0,51,0.00,,,0.00,meteohub,2014-02-09 14:01:00,
2014-02-09 06:02:00,35.8,19.0,25.29,SSE,163,0.0,4.0,50,0.00,,,0.00,meteohub,2014-02-09 14:02:00,
2014-02-09 06:04:00,35.8,19.0,25.29,SSE,163,0.0,4.0,50,0.00,,,0.00,meteohub,2014-02-09 14:04:00,
2014-02-09 06:05:00,35.8,19.0,25.29,South,173,3.0,4.0,50,0.00,,,0.00,meteohub,2014-02-09 14:05:00,
2014-02-09 06:07:00,35.6,18.9,25.29,South,173,2.0,4.0,50,0.00,,,0.00,meteohub,2014-02-09 14:07:00,
2014-02-09 06:08:00,35.6,18.9,25.29,South,172,4.0,4.0,50,0.00,,,0.00,meteohub,2014-02-09 14:08:00,
2014-02-09 06:09:00,35.6,18.9,25.29,South,172,3.0,4.0,50,0.00,,,0.00,meteohub,2014-02-09 14:09:00,
2014-02-09 06:11:00,35.4,19.0,25.29,South,172,3.0,4.0,51,0.00,,,0.00,meteohub,2014-02-09 14:11:00,
2014-02-09 06:12:00,35.4,19.0,25.29,South,171,3.0,4.0,51,0.00,,,0.00,meteohub,2014-02-09 14:12:00,
2014-02-09 06:13:00,35.4,19.0,25.29,South,171,0.0,4.0,51,0.00,,,0.00,meteohub,2014-02-09 14:13:00,
2014-02-09 06:15:00,35.2,18.9,25.29,South,176,2.0,4.0,51,0.00,,,0.00,meteohub,2014-02-09 14:15:00,
2014-02-09 06:17:00,35.1,18.7,25.29,SSW,211,3.0,4.0,51,0.00,,,0.00,meteohub,2014-02-09 14:17:00,
2014-02-09 06:18:00,35.1,18.7,25.29,SSW,211,0.0,4.0,51,0.00,,,0.00,meteohub,2014-02-09 14:18:00,
2014-02-09 06:19:00,35.1,18.7,25.29,SSW,210,3.0,4.0,51,0.00,,,0.00,meteohub,2014-02-09 14:19:00,
2014-02-09 06:21:00,35.1,18.3,25.29,SSW,195,0.0,4.0,50,0.00,,,0.00,meteohub,2014-02-09 14:21:00,
2014-02-09 06:23:00,34.9,18.1,25.29,SSW,194,3.0,4.0,50,0.00,,,0.00,meteohub,2014-02-09 14:23:00,
2014-02-09 06:24:00,34.9,18.1,25.29,South,187,0.0,4.0,50,0.00,,,0.00,meteohub,2014-02-09 14:24:00,
2014-02-09 06:27:00,34.7,18.5,25.29,SW,216,0.0,4.0,51,0.00,,,0.00,meteohub,2014-02-09 14:27:00,
2014-02-09 06:28:00,34.7,18.5,25.29,SW,216,0.0,4.0,51,0.00,,,0.00,meteohub,2014-02-09 14:28:00,
2014-02-09 06:29:00,34.7,18.5,25.29,SW,216,0.0,4.0,51,0.00,,,0.00,meteohub,2014-02-09 14:29:00,
2014-02-09 06:32:00,34.5,18.3,25.29,SW,216,0.0,4.0,51,0.00,,,0.00,meteohub,2014-02-09 14:32:00,
2014-02-09 06:36:00,34.3,18.1,25.29,SW,216,0.0,4.0,51,0.00,,,0.00,meteohub,2014-02-09 14:36:00,
2014-02-09 06:37:00,34.3,18.1,25.29,SW,216,0.0,4.0,51,0.00,,,0.00,meteohub,2014-02-09 14:37:00,
2014-02-09 06:39:00,34.2,18.0,25.29,SW,216,2.0,4.0,51,0.00,,,0.00,meteohub,2014-02-09 14:39:00,
2014-02-09 06:41:00,34.0,17.8,25.29,SW,216,3.0,0.0,51,0.00,,,0.00,meteohub,2014-02-09 14:41:00,
2014-02-09 06:42:00,34.0,17.8,25.29,SW,216,0.0,0.0,51,0.00,,,0.00,meteohub,2014-02-09 14:42:00,
2014-02-09 06:46:00,33.6,17.4,25.29,SW,216,2.0,3.0,51,0.00,,,0.00,meteohub,2014-02-09 14:46:00,
2014-02-09 06:49:00,33.4,17.2,25.29,SW,216,3.0,3.0,51,0.00,,,0.00,meteohub,2014-02-09 14:49:00,
2014-02-09 06:50:00,33.4,17.2,25.29,SW,216,3.0,3.0,51,0.00,,,0.00,meteohub,2014-02-09 14:50:00,
2014-02-09 06:51:00,33.3,17.1,25.29,SW,216,0.0,3.0,51,0.00,,,0.00,meteohub,2014-02-09 14:51:00,
2014-02-09 06:54:00,33.1,16.9,25.29,SW,216,0.0,3.0,51,0.00,,,0.00,meteohub,2014-02-09 14:54:00,
2014-02-09 06:55:00,33.1,16.9,25.29,SW,216,3.0,3.0,51,0.00,,,0.00,meteohub,2014-02-09 14:55:00,
2014-02-09 06:56:00,33.1,16.9,25.29,SW,216,3.0,3.0,51,0.00,,,0.00,meteohub,2014-02-09 14:56:00,
2014-02-09 06:58:00,32.9,16.7,25.29,SW,215,3.0,3.0,51,0.00,,,0.00,meteohub,2014-02-09 14:58:00,
2014-02-09 06:59:00,32.7,16.5,25.29,South,184,4.0,4.0,51,0.00,,,0.00,meteohub,2014-02-09 14:59:00,
2014-02-09 07:00:00,32.7,16.5,25.29,South,184,3.0,4.0,51,0.00,,,0.00,meteohub,2014-02-09 15:00:00,
2014-02-09 07:01:00,32.7,16.5,25.29,South,184,3.0,4.0,51,0.00,,,0.00,meteohub,2014-02-09 15:01:00,
2014-02-09 07:04:00,32.7,17.1,25.29,South,179,3.0,4.0,52,0.00,,,0.00,meteohub,2014-02-09 15:04:00,
2014-02-09 07:06:00,32.7,17.1,25.29,South,179,0.0,4.0,52,0.00,,,0.00,meteohub,2014-02-09 15:06:00,
2014-02-09 07:07:00,32.7,17.1,25.29,South,179,0.0,4.0,52,0.00,,,0.00,meteohub,2014-02-09 15:07:00,
2014-02-09 07:09:00,32.7,17.1,25.29,South,179,0.0,4.0,52,0.00,,,0.00,meteohub,2014-02-09 15:09:00,
2014-02-09 07:12:00,32.7,17.1,25.29,South,179,0.0,4.0,52,0.00,,,0.00,meteohub,2014-02-09 15:12:00,
2014-02-09 07:13:00,32.7,17.1,25.29,South,178,0.0,4.0,52,0.00,,,0.00,meteohub,2014-02-09 15:13:00,
2014-02-09 07:15:00,32.7,17.1,25.29,South,179,0.0,4.0,52,0.00,,,0.00,meteohub,2014-02-09 15:15:00,
2014-02-09 07:16:00,32.7,17.1,25.29,South,179,0.0,4.0,52,0.00,,,0.00,meteohub,2014-02-09 15:16:00,
2014-02-09 07:17:00,32.7,17.1,25.29,South,179,0.0,4.0,52,0.00,,,0.00,meteohub,2014-02-09 15:17:00,
2014-02-09 07:18:00,32.7,17.1,25.29,South,179,0.0,4.0,52,0.00,,,0.00,meteohub,2014-02-09 15:18:00,
2014-02-09 07:22:00,32.7,17.1,25.29,South,178,0.0,0.0,52,0.00,,,0.00,meteohub,2014-02-09 15:22:00,
2014-02-09 07:24:00,32.7,17.1,25.29,South,178,0.0,0.0,52,0.00,,,0.00,meteohub,2014-02-09 15:24:00,
2014-02-09 07:27:00,32.7,17.1,25.29,South,178,0.0,0.0,52,0.00,,,0.00,meteohub,2014-02-09 15:27:00,
2014-02-09 07:28:00,32.5,17.2,25.29,South,178,0.0,0.0,53,0.00,,,0.00,meteohub,2014-02-09 15:28:00,
2014-02-09 07:30:00,32.5,17.2,25.29,South,178,0.0,0.0,53,0.00,,,0.00,meteohub,2014-02-09 15:30:00,
2014-02-09 07:32:00,32.5,17.2,25.29,South,178,0.0,0.0,53,0.00,,,0.00,meteohub,2014-02-09 15:32:00,
2014-02-09 07:33:00,32.5,17.2,25.29,South,178,0.0,0.0,53,0.00,,,0.00,meteohub,2014-02-09 15:33:00,
2014-02-09 07:35:00,32.5,17.2,25.29,South,178,0.0,0.0,53,0.00,,,0.00,meteohub,2014-02-09 15:35:00,
2014-02-09 07:36:00,32.5,17.2,25.29,South,178,0.0,0.0,53,0.00,,,0.00,meteohub,2014-02-09 15:36:00,
2014-02-09 07:38:00,32.5,17.2,25.29,South,178,0.0,0.0,53,0.00,,,0.00,meteohub,2014-02-09 15:38:00,
2014-02-09 07:40:00,32.7,17.4,25.29,South,178,0.0,0.0,53,0.00,,,0.00,meteohub,2014-02-09 15:40:00,
2014-02-09 07:41:00,32.7,17.4,25.29,South,178,0.0,0.0,53,0.00,,,0.00,meteohub,2014-02-09 15:41:00,
2014-02-09 07:42:00,32.7,17.4,25.29,South,178,0.0,0.0,53,0.00,,,0.00,meteohub,2014-02-09 15:42:00,
2014-02-09 07:44:00,32.7,17.4,25.29,South,178,0.0,0.0,53,0.00,,,0.00,meteohub,2014-02-09 15:44:00,
2014-02-09 07:46:00,32.7,17.4,25.29,South,189,0.0,0.0,53,0.00,,,0.00,meteohub,2014-02-09 15:46:00,
2014-02-09 07:47:00,32.7,17.4,25.29,South,185,0.0,0.0,53,0.00,,,0.00,meteohub,2014-02-09 15:47:00,
2014-02-09 07:51:00,32.7,18.0,25.29,SSW,211,0.0,0.0,54,-99.99,,,0.00,meteohub,2014-02-09 15:51:00,
2014-02-09 07:52:00,32.7,18.0,25.29,SSW,195,0.0,0.0,54,-99.99,,,0.00,meteohub,2014-02-09 15:52:00,
2014-02-09 07:56:00,32.7,18.0,25.29,SSE,168,3.0,5.0,54,-99.99,,,0.00,meteohub,2014-02-09 15:56:00,
2014-02-09 07:57:00,32.9,18.1,25.29,SSE,168,3.0,5.0,54,-99.99,,,0.00,meteohub,2014-02-09 15:57:00,
2014-02-09 07:58:00,32.9,18.1,25.29,SSE,168,3.0,5.0,54,-99.99,,,0.00,meteohub,2014-02-09 15:58:00,
2014-02-09 08:00:00,32.9,18.1,25.29,SSE,166,3.0,5.0,54,-99.99,,,0.00,meteohub,2014-02-09 16:00:00,
2014-02-09 08:02:00,33.1,18.3,25.29,SSE,162,3.0,5.0,54,-99.99,,,0.00,meteohub,2014-02-09 16:02:00,
2014-02-09 08:04:00,33.1,18.3,25.29,South,185,3.0,5.0,54,-99.99,,,0.00,meteohub,2014-02-09 16:04:00,
2014-02-09 08:06:00,33.3,18.9,25.29,South,184,3.0,5.0,55,-99.99,,,0.00,meteohub,2014-02-09 16:06:00,
2014-02-09 08:08:00,33.3,18.9,25.29,South,184,3.0,5.0,55,-99.99,,,0.00,meteohub,2014-02-09 16:08:00,
2014-02-09 08:09:00,33.3,18.9,25.29,South,184,3.0,5.0,55,-99.99,,,0.00,meteohub,2014-02-09 16:09:00,
2014-02-09 08:11:00,33.4,19.0,25.29,South,183,3.0,4.0,55,-99.99,,,0.00,meteohub,2014-02-09 16:11:00,
2014-02-09 08:12:00,33.4,19.0,25.29,South,183,4.0,4.0,55,-99.99,,,0.00,meteohub,2014-02-09 16:12:00,
2014-02-09 08:15:00,33.6,19.2,25.29,SSE,164,0.0,4.0,55,-99.99,,,0.00,meteohub,2014-02-09 16:15:00,
2014-02-09 08:16:00,33.6,19.2,25.29,SSE,164,0.0,4.0,55,-99.99,,,0.00,meteohub,2014-02-09 16:16:00,
2014-02-09 08:17:00,33.6,19.2,25.29,SSE,167,0.0,4.0,55,-99.99,,,0.00,meteohub,2014-02-09 16:17:00,
2014-02-09 08:18:00,33.6,19.2,25.29,SSE,167,0.0,4.0,55,-99.99,,,0.00,meteohub,2014-02-09 16:18:00,
2014-02-09 08:21:00,33.8,19.4,25.29,SSE,167,0.0,4.0,55,-99.99,,,0.00,meteohub,2014-02-09 16:21:00,
2014-02-09 08:22:00,33.8,19.4,25.29,SSE,167,0.0,4.0,55,-99.99,,,0.00,meteohub,2014-02-09 16:22:00,
2014-02-09 08:26:00,33.8,19.4,25.29,SSE,167,0.0,4.0,55,-99.99,,,0.00,meteohub,2014-02-09 16:26:00,
2014-02-09 08:27:00,33.8,19.4,25.29,SSE,167,0.0,4.0,55,-99.99,,,0.00,meteohub,2014-02-09 16:27:00,
2014-02-09 08:29:00,33.8,19.4,25.29,SSE,167,3.0,4.0,55,-99.99,,,0.00,meteohub,2014-02-09 16:29:00,
2014-02-09 08:32:00,34.0,19.6,25.29,SSE,167,3.0,0.0,55,-99.99,,,0.00,meteohub,2014-02-09 16:32:00,
2014-02-09 08:33:00,34.0,19.6,25.29,SW,223,2.0,0.0,55,-99.99,,,0.00,meteohub,2014-02-09 16:33:00,
2014-02-09 08:34:00,34.0,19.6,25.29,SW,222,3.0,0.0,55,-99.99,,,0.00,meteohub,2014-02-09 16:34:00,
2014-02-09 08:36:00,34.2,19.8,25.29,SW,221,3.0,4.0,55,-99.99,,,0.00,meteohub,2014-02-09 16:36:00,
2014-02-09 08:37:00,34.2,19.8,25.29,SW,221,3.0,4.0,55,-99.99,,,0.00,meteohub,2014-02-09 16:37:00,
2014-02-09 08:39:00,34.3,19.8,25.29,SSW,193,4.0,4.0,55,-99.99,,,0.00,meteohub,2014-02-09 16:39:00,
2014-02-09 08:40:00,34.3,19.8,25.29,SSW,194,3.0,4.0,55,-99.99,,,0.00,meteohub,2014-02-09 16:40:00,
2014-02-09 08:41:00,34.5,19.9,25.29,SSW,194,3.0,4.0,55,-99.99,,,0.00,meteohub,2014-02-09 16:41:00,
2014-02-09 08:42:00,34.5,19.9,25.29,SSW,194,3.0,4.0,55,-99.99,,,0.00,meteohub,2014-02-09 16:42:00,
2014-02-09 08:45:00,34.7,20.7,25.29,South,182,3.0,4.0,56,-99.99,,,0.00,meteohub,2014-02-09 16:45:00,
2014-02-09 08:47:00,34.9,20.8,25.29,South,181,3.0,4.0,56,-99.99,,,0.00,meteohub,2014-02-09 16:47:00,
2014-02-09 08:48:00,35.1,21.0,25.29,South,177,2.0,4.0,56,-99.99,,,0.00,meteohub,2014-02-09 16:48:00,
2014-02-09 08:51:00,35.4,21.2,25.29,SSE,161,2.0,4.0,56,-99.99,,,0.00,meteohub,2014-02-09 16:51:00,
2014-02-09 08:52:00,35.4,21.2,25.29,SSE,161,3.0,4.0,56,-99.99,,,0.00,meteohub,2014-02-09 16:52:00,
2014-02-09 08:54:00,35.6,21.4,25.29,SSE,161,3.0,4.0,56,-99.99,,,0.00,meteohub,2014-02-09 16:54:00,
2014-02-09 08:57:00,35.8,21.6,25.29,SSE,163,3.0,4.0,56,-99.99,,,0.00,meteohub,2014-02-09 16:57:00,
2014-02-09 08:59:00,36.1,21.9,25.29,SSE,163,0.0,4.0,56,-99.99,,,0.00,meteohub,2014-02-09 16:59:00,
2014-02-09 09:02:00,36.1,21.9,25.29,SSE,163,0.0,4.0,56,0.00,,,0.00,meteohub,2014-02-09 17:02:00,
2014-02-09 09:03:00,36.1,21.6,25.29,SSE,163,0.0,4.0,55,0.00,,,0.00,meteohub,2014-02-09 17:03:00,
2014-02-09 09:05:00,36.3,21.7,25.29,SSE,163,0.0,4.0,55,0.00,,,0.00,meteohub,2014-02-09 17:05:00,
2014-02-09 09:06:00,36.3,21.7,25.29,SSE,163,0.0,4.0,55,0.00,,,0.00,meteohub,2014-02-09 17:06:00,
2014-02-09 09:09:00,36.5,21.9,25.29,SSE,163,0.0,4.0,55,0.00,,,0.00,meteohub,2014-02-09 17:09:00,
2014-02-09 09:11:00,36.7,22.1,25.29,SSE,162,0.0,4.0,55,0.00,,,0.00,meteohub,2014-02-09 17:11:00,
2014-02-09 09:12:00,36.7,22.1,25.29,SSE,162,0.0,4.0,55,0.00,,,0.00,meteohub,2014-02-09 17:12:00,
2014-02-09 09:13:00,36.9,22.3,25.29,SSE,162,0.0,4.0,55,0.00,,,0.00,meteohub,2014-02-09 17:13:00,
2014-02-09 09:17:00,37.0,22.5,25.29,SSW,209,0.0,0.0,55,0.00,,,0.00,meteohub,2014-02-09 17:17:00,
2014-02-09 09:18:00,37.0,22.5,25.29,SSW,209,0.0,0.0,55,0.00,,,0.00,meteohub,2014-02-09 17:18:00,
2014-02-09 09:20:00,37.2,22.5,25.29,SSW,209,0.0,0.0,55,0.00,,,0.00,meteohub,2014-02-09 17:20:00,
2014-02-09 09:22:00,37.4,22.3,25.29,SSW,209,0.0,0.0,54,0.00,,,0.00,meteohub,2014-02-09 17:22:00,
2014-02-09 09:25:00,37.4,22.3,25.29,SSW,209,3.0,0.0,54,0.00,,,0.00,meteohub,2014-02-09 17:25:00,
2014-02-09 09:26:00,37.4,22.3,25.29,SSW,209,2.0,0.0,54,0.00,,,0.00,meteohub,2014-02-09 17:26:00,
2014-02-09 09:27:00,37.6,22.5,25.29,SSW,199,3.0,0.0,54,0.00,,,0.00,meteohub,2014-02-09 17:27:00,
2014-02-09 09:29:00,37.6,22.5,25.29,SW,215,3.0,0.0,54,0.00,,,0.00,meteohub,2014-02-09 17:29:00,
2014-02-09 09:32:00,37.6,22.5,25.29,SW,233,3.0,4.0,54,0.00,,,0.00,meteohub,2014-02-09 17:32:00,
2014-02-09 09:33:00,37.6,22.5,25.29,SW,233,0.0,4.0,54,0.00,,,0.00,meteohub,2014-02-09 17:33:00,
2014-02-09 09:34:00,37.6,22.5,25.29,SW,233,0.0,4.0,54,0.00,,,0.00,meteohub,2014-02-09 17:34:00,
2014-02-09 09:36:00,37.8,22.1,25.29,SW,233,0.0,4.0,53,0.00,,,0.00,meteohub,2014-02-09 17:36:00,
2014-02-09 09:37:00,37.8,22.1,25.29,SW,233,3.0,4.0,53,0.00,,,0.00,meteohub,2014-02-09 17:37:00,
2014-02-09 09:38:00,37.6,21.9,25.29,SW,228,4.0,4.0,53,0.00,,,0.00,meteohub,2014-02-09 17:38:00,
2014-02-09 09:42:00,37.8,22.1,25.29,SW,228,4.0,4.0,53,0.00,,,0.00,meteohub,2014-02-09 17:42:00,
2014-02-09 09:43:00,37.8,22.1,25.29,WSW,237,4.0,4.0,53,0.00,,,0.00,meteohub,2014-02-09 17:43:00,
2014-02-09 09:45:00,37.9,22.3,25.29,SSW,212,3.0,4.0,53,0.00,,,0.00,meteohub,2014-02-09 17:45:00,
2014-02-09 09:46:00,37.9,22.3,25.29,SW,236,3.0,4.0,53,0.00,,,0.00,meteohub,2014-02-09 17:46:00,
2014-02-09 09:47:00,37.9,21.9,25.29,WSW,246,4.0,4.0,52,0.00,,,0.00,meteohub,2014-02-09 17:47:00,
2014-02-09 09:50:00,38.1,21.6,25.29,SSE,167,2.0,4.0,51,0.00,,,0.00,meteohub,2014-02-09 17:50:00,
2014-02-09 09:52:00,38.3,21.7,25.29,WSW,252,4.0,4.0,51,0.00,,,0.00,meteohub,2014-02-09 17:52:00,
2014-02-09 09:53:00,38.3,21.7,25.29,SSW,194,4.0,4.0,51,0.00,,,0.00,meteohub,2014-02-09 17:53:00,
2014-02-09 09:55:00,38.5,21.4,25.32,WSW,253,5.0,5.0,50,0.00,,,0.00,meteohub,2014-02-09 17:55:00,
2014-02-09 09:56:00,38.5,21.4,25.32,West,270,4.0,4.0,50,0.00,,,0.00,meteohub,2014-02-09 17:56:00,
2014-02-09 09:57:00,38.7,21.2,25.32,West,263,4.0,4.0,49,0.00,,,0.00,meteohub,2014-02-09 17:57:00,
2014-02-09 09:59:00,38.8,21.4,25.32,WSW,256,4.0,4.0,49,0.00,,,0.00,meteohub,2014-02-09 17:59:00,
2014-02-09 10:00:00,38.8,20.3,25.32,WSW,256,2.0,6.0,47,0.00,,,0.00,meteohub,2014-02-09 18:00:00,
2014-02-09 10:01:00,38.8,19.8,25.32,West,277,3.0,6.0,46,0.00,,,0.00,meteohub,2014-02-09 18:01:00,
2014-02-09 10:02:00,39.0,19.4,25.32,WSW,258,4.0,6.0,45,0.00,,,0.00,meteohub,2014-02-09 18:02:00,
2014-02-09 10:03:00,39.2,19.6,25.32,West,268,3.0,6.0,45,0.00,,,0.00,meteohub,2014-02-09 18:03:00,
2014-02-09 10:05:00,39.4,19.8,25.32,SSW,207,3.0,6.0,45,0.00,,,0.00,meteohub,2014-02-09 18:05:00,
2014-02-09 10:08:00,39.4,19.8,25.32,WSW,254,5.0,6.0,45,0.00,,,0.00,meteohub,2014-02-09 18:08:00,
2014-02-09 10:10:00,39.4,18.1,25.29,West,259,4.0,7.0,42,-99.99,,,0.00,meteohub,2014-02-09 18:10:00,
2014-02-09 10:12:00,39.7,18.5,25.29,SW,226,0.0,7.0,42,-99.99,,,0.00,meteohub,2014-02-09 18:12:00,
2014-02-09 10:15:00,39.9,18.7,25.29,SW,220,3.0,7.0,42,-99.99,,,0.00,meteohub,2014-02-09 18:15:00,
2014-02-09 10:16:00,39.9,19.2,25.29,SSW,207,4.0,7.0,43,-99.99,,,0.00,meteohub,2014-02-09 18:16:00,
2014-02-09 10:18:00,40.1,19.4,25.29,SSW,209,3.0,7.0,43,-99.99,,,0.00,meteohub,2014-02-09 18:18:00,
2014-02-09 10:19:00,40.1,19.4,25.29,SW,236,3.0,7.0,43,-99.99,,,0.00,meteohub,2014-02-09 18:19:00,
2014-02-09 10:21:00,40.3,19.6,25.29,SW,222,0.0,7.0,43,-99.99,,,0.00,meteohub,2014-02-09 18:21:00,
2014-02-09 10:22:00,40.3,19.6,25.29,SW,222,0.0,7.0,43,-99.99,,,0.00,meteohub,2014-02-09 18:22:00,
2014-02-09 10:23:00,40.3,19.6,25.29,SSW,210,4.0,7.0,43,-99.99,,,0.00,meteohub,2014-02-09 18:23:00,
2014-02-09 10:25:00,40.3,19.6,25.29,WSW,256,4.0,6.0,43,-99.99,,,0.00,meteohub,2014-02-09 18:25:00,
2014-02-09 10:28:00,40.5,19.2,25.29,SSW,203,4.0,6.0,42,-99.99,,,0.00,meteohub,2014-02-09 18:28:00,
2014-02-09 10:30:00,40.5,19.2,25.29,WSW,254,4.0,6.0,42,-99.99,,,0.00,meteohub,2014-02-09 18:30:00,
2014-02-09 10:31:00,40.5,19.8,25.29,SSW,203,4.0,6.0,43,-99.99,,,0.00,meteohub,2014-02-09 18:31:00,
2014-02-09 10:32:00,40.5,19.8,25.29,SW,228,4.0,6.0,43,-99.99,,,0.00,meteohub,2014-02-09 18:32:00,
2014-02-09 10:34:00,40.6,19.4,25.29,WSW,239,0.0,6.0,42,-99.99,,,0.00,meteohub,2014-02-09 18:34:00,
2014-02-09 10:36:00,40.8,19.6,25.29,SW,214,3.0,6.0,42,-99.99,,,0.00,meteohub,2014-02-09 18:36:00,
2014-02-09 10:37:00,40.8,19.6,25.29,SSW,200,4.0,6.0,42,-99.99,,,0.00,meteohub,2014-02-09 18:37:00,
2014-02-09 10:38:00,40.8,19.6,25.29,WSW,241,5.0,6.0,42,-99.99,,,0.00,meteohub,2014-02-09 18:38:00,
2014-02-09 10:40:00,40.8,19.6,25.29,WSW,242,5.0,6.0,42,0.00,,,0.00,meteohub,2014-02-09 18:40:00,
2014-02-09 10:42:00,41.0,19.0,25.29,South,191,3.0,6.0,41,0.00,,,0.00,meteohub,2014-02-09 18:42:00,
2014-02-09 10:43:00,41.0,19.0,25.29,SSW,205,2.0,6.0,41,0.00,,,0.00,meteohub,2014-02-09 18:43:00,
2014-02-09 10:45:00,41.0,19.0,25.29,SSE,168,4.0,8.0,41,0.00,,,0.00,meteohub,2014-02-09 18:45:00,
2014-02-09 10:47:00,41.2,19.2,25.29,SSW,212,4.0,8.0,41,0.00,,,0.00,meteohub,2014-02-09 18:47:00,
2014-02-09 10:50:00,41.4,19.4,25.29,SSE,165,4.0,8.0,41,0.00,,,0.00,meteohub,2014-02-09 18:50:00,
2014-02-09 10:52:00,41.5,19.6,25.29,SSW,211,4.0,8.0,41,0.00,,,0.00,meteohub,2014-02-09 18:52:00,
2014-02-09 10:53:00,41.5,19.6,25.29,SW,221,2.0,8.0,41,0.00,,,0.00,meteohub,2014-02-09 18:53:00,
2014-02-09 10:56:00,41.5,19.6,25.29,SW,215,3.0,8.0,41,0.00,,,0.00,meteohub,2014-02-09 18:56:00,
2014-02-09 10:57:00,41.7,19.8,25.29,WNW,286,4.0,8.0,41,0.00,,,0.00,meteohub,2014-02-09 18:57:00,
2014-02-09 10:58:00,41.5,19.0,25.29,West,264,3.0,8.0,40,0.00,,,0.00,meteohub,2014-02-09 18:58:00,
2014-02-09 10:59:00,41.7,19.2,25.29,SSW,210,4.0,8.0,40,0.00,,,0.00,meteohub,2014-02-09 18:59:00,
2014-02-09 11:02:00,41.7,19.2,25.29,SW,217,3.0,5.0,40,0.00,,,0.00,meteohub,2014-02-09 19:02:00,
2014-02-09 11:03:00,41.7,19.2,25.29,WSW,237,0.0,5.0,40,0.00,,,0.00,meteohub,2014-02-09 19:03:00,
2014-02-09 11:04:00,41.9,19.4,25.29,WSW,256,3.0,5.0,40,0.00,,,0.00,meteohub,2014-02-09 19:04:00,
2014-02-09 11:06:00,41.9,19.4,25.29,West,268,3.0,5.0,40,0.00,,,0.00,meteohub,2014-02-09 19:06:00,
2014-02-09 11:07:00,41.9,19.4,25.29,West,268,0.0,5.0,40,0.00,,,0.00,meteohub,2014-02-09 19:07:00,
2014-02-09 11:08:00,41.9,19.4,25.29,West,276,3.0,5.0,40,0.00,,,0.00,meteohub,2014-02-09 19:08:00,
2014-02-09 11:09:00,41.9,19.4,25.29,West,262,2.0,5.0,40,0.00,,,0.00,meteohub,2014-02-09 19:09:00,
2014-02-09 11:12:00,42.1,18.9,25.29,WSW,247,3.0,6.0,39,0.00,,,0.00,meteohub,2014-02-09 19:12:00,
2014-02-09 11:13:00,42.1,18.9,25.29,WNW,287,3.0,6.0,39,0.00,,,0.00,meteohub,2014-02-09 19:13:00,
2014-02-09 11:16:00,42.1,18.9,25.29,West,262,2.0,6.0,39,0.00,,,0.00,meteohub,2014-02-09 19:16:00,
2014-02-09 11:17:00,42.1,18.9,25.29,West,262,0.0,6.0,39,0.00,,,0.00,meteohub,2014-02-09 19:17:00,
2014-02-09 11:20:00,42.1,18.9,25.29,WSW,256,4.0,6.0,39,0.00,,,0.00,meteohub,2014-02-09 19:20:00,
2014-02-09 11:21:00,42.1,18.9,25.29,SW,214,3.0,6.0,39,0.00,,,0.00,meteohub,2014-02-09 19:21:00,
2014-02-09 11:22:00,42.1,18.9,25.29,SW,214,2.0,6.0,39,0.00,,,0.00,meteohub,2014-02-09 19:22:00,
2014-02-09 11:27:00,42.3,19.0,25.29,West,278,2.0,5.0,39,0.00,,,0.00,meteohub,2014-02-09 19:27:00,
2014-02-09 11:28:00,42.3,19.0,25.29,West,278,0.0,5.0,39,0.00,,,0.00,meteohub,2014-02-09 19:28:00,
2014-02-09 11:29:00,42.4,19.2,25.29,WSW,241,3.0,5.0,39,0.00,,,0.00,meteohub,2014-02-09 19:29:00,
2014-02-09 11:30:00,42.4,19.2,25.29,WSW,241,0.0,4.0,39,0.00,,,0.00,meteohub,2014-02-09 19:30:00,
2014-02-09 11:32:00,42.4,19.2,25.29,WSW,251,3.0,4.0,39,0.00,,,0.00,meteohub,2014-02-09 19:32:00,
2014-02-09 11:36:00,42.6,19.4,25.29,SW,234,0.0,4.0,39,0.00,,,0.00,meteohub,2014-02-09 19:36:00,
2014-02-09 11:37:00,42.6,19.4,25.29,SW,234,3.0,4.0,39,0.00,,,0.00,meteohub,2014-02-09 19:37:00,
2014-02-09 11:38:00,43.0,19.0,25.29,SW,230,4.0,4.0,38,0.00,,,0.00,meteohub,2014-02-09 19:38:00,
2014-02-09 11:39:00,43.0,19.0,25.29,South,190,4.0,4.0,38,0.00,,,0.00,meteohub,2014-02-09 19:39:00,
2014-02-09 11:40:00,43.2,19.2,25.29,South,186,4.0,4.0,38,0.00,,,0.00,meteohub,2014-02-09 19:40:00,
2014-02-09 11:44:00,43.3,18.9,25.29,WNW,290,3.0,4.0,37,0.00,,,0.00,meteohub,2014-02-09 19:44:00,
2014-02-09 11:46:00,43.3,18.9,25.29,WNW,302,4.0,5.0,37,0.00,,,0.00,meteohub,2014-02-09 19:46:00,
2014-02-09 11:47:00,43.3,18.1,25.29,West,263,5.0,5.0,36,0.00,,,0.00,meteohub,2014-02-09 19:47:00,
2014-02-09 11:52:00,44.1,18.9,25.29,SW,230,0.0,6.0,36,0.00,,,0.00,meteohub,2014-02-09 19:52:00,
2014-02-09 11:54:00,44.2,19.0,25.26,SSW,192,4.0,6.0,36,0.00,,,0.00,meteohub,2014-02-09 19:54:00,
2014-02-09 11:57:00,44.2,16.9,25.26,South,171,4.0,6.0,33,0.00,,,0.00,meteohub,2014-02-09 19:57:00,
2014-02-09 11:58:00,44.2,16.9,25.26,WSW,245,4.0,6.0,33,0.00,,,0.00,meteohub,2014-02-09 19:58:00,
2014-02-09 12:02:00,44.4,17.8,25.26,SE,140,3.0,6.0,34,0.00,,,0.00,meteohub,2014-02-09 20:02:00,
2014-02-09 12:03:00,44.6,18.0,25.26,WSW,250,2.0,6.0,34,0.00,,,0.00,meteohub,2014-02-09 20:03:00,
2014-02-09 12:04:00,44.6,18.0,25.26,West,259,3.0,6.0,34,0.00,,,0.00,meteohub,2014-02-09 20:04:00,
2014-02-09 12:05:00,44.6,18.0,25.26,WSW,258,2.0,6.0,34,0.00,,,0.00,meteohub,2014-02-09 20:05:00,
2014-02-09 12:06:00,44.6,18.0,25.26,WSW,245,3.0,6.0,34,0.00,,,0.00,meteohub,2014-02-09 20:06:00,
2014-02-09 12:09:00,44.6,17.2,25.26,WNW,284,4.0,6.0,33,0.00,,,0.00,meteohub,2014-02-09 20:09:00,
2014-02-09 12:10:00,44.6,16.5,25.26,WSW,240,6.0,6.0,32,0.00,,,0.00,meteohub,2014-02-09 20:10:00,
2014-02-09 12:12:00,44.6,16.5,25.26,SSW,203,3.0,6.0,32,0.00,,,0.00,meteohub,2014-02-09 20:12:00,
2014-02-09 12:16:00,44.8,16.7,25.26,West,268,4.0,6.0,32,0.00,,,0.00,meteohub,2014-02-09 20:16:00,
2014-02-09 12:17:00,44.8,16.7,25.26,West,275,3.0,6.0,32,0.00,,,0.00,meteohub,2014-02-09 20:17:00,
2014-02-09 12:18:00,45.0,16.9,25.26,WNW,292,3.0,6.0,32,0.00,,,0.00,meteohub,2014-02-09 20:18:00,
2014-02-09 12:22:00,45.3,17.2,25.26,WSW,254,5.0,6.0,32,0.00,,,0.00,meteohub,2014-02-09 20:22:00,
2014-02-09 12:23:00,45.5,16.5,25.26,WSW,237,4.0,6.0,31,0.00,,,0.00,meteohub,2014-02-09 20:23:00,
2014-02-09 12:24:00,45.7,16.7,25.26,WSW,249,8.0,8.0,31,0.00,,,0.00,meteohub,2014-02-09 20:24:00,
2014-02-09 12:27:00,46.0,16.3,25.26,NNW,334,3.0,8.0,30,0.00,,,0.00,meteohub,2014-02-09 20:27:00,
2014-02-09 12:28:00,46.0,17.1,25.26,WNW,303,4.0,8.0,31,0.00,,,0.00,meteohub,2014-02-09 20:28:00,
2014-02-09 12:32:00,46.2,17.2,25.26,West,267,4.0,8.0,31,0.00,,,0.00,meteohub,2014-02-09 20:32:00,
2014-02-09 12:34:00,46.4,16.7,25.26,WSW,247,4.0,8.0,30,0.00,,,0.00,meteohub,2014-02-09 20:34:00,
2014-02-09 12:36:00,46.4,16.7,25.26,WNW,284,5.0,8.0,30,0.00,,,0.00,meteohub,2014-02-09 20:36:00,
2014-02-09 12:37:00,46.4,16.7,25.26,SSW,193,5.0,8.0,30,0.00,,,0.00,meteohub,2014-02-09 20:37:00,
2014-02-09 12:38:00,46.2,16.5,25.26,SW,232,5.0,8.0,30,0.00,,,0.00,meteohub,2014-02-09 20:38:00,
2014-02-09 12:39:00,46.2,16.5,25.26,West,272,2.0,8.0,30,0.00,,,0.00,meteohub,2014-02-09 20:39:00,
2014-02-09 12:41:00,46.0,16.3,25.26,WSW,240,3.0,6.0,30,0.00,,,0.00,meteohub,2014-02-09 20:41:00,
2014-02-09 12:42:00,45.9,16.2,25.26,SW,215,5.0,6.0,30,0.00,,,0.00,meteohub,2014-02-09 20:42:00,
2014-02-09 12:44:00,45.7,16.0,25.26,WSW,256,4.0,6.0,30,0.00,,,0.00,meteohub,2014-02-09 20:44:00,
2014-02-09 12:46:00,45.5,15.8,25.26,WNW,292,3.0,6.0,30,0.00,,,0.00,meteohub,2014-02-09 20:46:00,
2014-02-09 12:49:00,45.3,15.6,25.26,WSW,251,4.0,6.0,30,0.00,,,0.00,meteohub,2014-02-09 20:49:00,
2014-02-09 12:50:00,45.3,16.5,25.26,SSW,212,4.0,6.0,31,0.00,,,0.00,meteohub,2014-02-09 20:50:00,
2014-02-09 12:51:00,45.5,16.5,25.26,SW,235,3.0,6.0,31,0.00,,,0.00,meteohub,2014-02-09 20:51:00,
2014-02-09 12:52:00,45.5,16.5,25.26,WSW,237,3.0,6.0,31,0.00,,,0.00,meteohub,2014-02-09 20:52:00,
2014-02-09 12:55:00,45.9,16.9,25.23,WSW,237,4.0,6.0,31,0.00,,,0.00,meteohub,2014-02-09 20:55:00,
2014-02-09 12:56:00,45.9,16.9,25.23,SW,228,6.0,6.0,31,0.00,,,0.00,meteohub,2014-02-09 20:56:00,
2014-02-09 12:58:00,46.0,17.1,25.23,West,263,6.0,6.0,31,0.00,,,0.00,meteohub,2014-02-09 20:58:00,
2014-02-09 13:00:00,46.0,16.3,25.23,NW,315,5.0,7.0,30,0.00,,,0.00,meteohub,2014-02-09 21:00:00,
2014-02-09 13:01:00,46.0,16.3,25.23,SW,226,4.0,7.0,30,0.00,,,0.00,meteohub,2014-02-09 21:01:00,
2014-02-09 13:02:00,46.0,16.3,25.23,South,185,3.0,7.0,30,0.00,,,0.00,meteohub,2014-02-09 21:02:00,
2014-02-09 13:05:00,45.9,16.9,25.23,WSW,238,6.0,8.0,31,-99.99,,,0.00,meteohub,2014-02-09 21:05:00,
2014-02-09 13:07:00,45.7,16.7,25.23,West,278,3.0,8.0,31,-99.99,,,0.00,meteohub,2014-02-09 21:07:00,
2014-02-09 13:08:00,45.5,16.5,25.26,WNW,282,6.0,8.0,31,-99.99,,,0.00,meteohub,2014-02-09 21:08:00,
2014-02-09 13:09:00,45.5,16.5,25.26,West,260,3.0,8.0,31,-99.99,,,0.00,meteohub,2014-02-09 21:09:00,
2014-02-09 13:10:00,45.3,16.5,25.26,WSW,239,5.0,8.0,31,-99.99,,,0.00,meteohub,2014-02-09 21:10:00,
2014-02-09 13:12:00,45.3,16.5,25.26,West,261,3.0,8.0,31,-99.99,,,0.00,meteohub,2014-02-09 21:12:00,
2014-02-09 13:15:00,45.1,16.3,25.26,WNW,299,4.0,8.0,31,-99.99,,,0.00,meteohub,2014-02-09 21:15:00,
2014-02-09 13:17:00,45.1,16.3,25.26,WNW,286,3.0,8.0,31,-99.99,,,0.00,meteohub,2014-02-09 21:17:00,
2014-02-09 13:18:00,45.1,16.3,25.26,SW,223,4.0,8.0,31,-99.99,,,0.00,meteohub,2014-02-09 21:18:00,
2014-02-09 13:21:00,45.1,16.3,25.26,WSW,238,0.0,6.0,31,-99.99,,,0.00,meteohub,2014-02-09 21:21:00,
2014-02-09 13:22:00,45.1,16.3,25.26,WSW,238,0.0,6.0,31,-99.99,,,0.00,meteohub,2014-02-09 21:22:00,
2014-02-09 13:25:00,45.1,16.3,25.23,WSW,252,2.0,6.0,31,-99.99,,,0.00,meteohub,2014-02-09 21:25:00,
2014-02-09 13:26:00,45.1,16.3,25.23,West,262,3.0,6.0,31,-99.99,,,0.00,meteohub,2014-02-09 21:26:00,
2014-02-09 13:27:00,45.1,16.3,25.23,WSW,246,3.0,6.0,31,-99.99,,,0.00,meteohub,2014-02-09 21:27:00,
2014-02-09 13:28:00,45.1,16.3,25.23,WSW,248,0.0,6.0,31,-99.99,,,0.00,meteohub,2014-02-09 21:28:00,
2014-02-09 13:29:00,45.1,16.3,25.23,SW,224,4.0,6.0,31,-99.99,,,0.00,meteohub,2014-02-09 21:29:00,
2014-02-09 13:32:00,45.1,16.3,25.23,SSW,203,3.0,6.0,31,-99.99,,,0.00,meteohub,2014-02-09 21:32:00,
2014-02-09 13:33:00,45.1,16.3,25.23,SW,233,4.0,6.0,31,-99.99,,,0.00,meteohub,2014-02-09 21:33:00,
2014-02-09 13:34:00,45.1,17.1,25.23,SSW,196,4.0,6.0,32,-99.99,,,0.00,meteohub,2014-02-09 21:34:00,
2014-02-09 13:35:00,45.1,17.1,25.23,WSW,256,4.0,4.0,32,-99.99,,,0.00,meteohub,2014-02-09 21:35:00,
2014-02-09 13:37:00,45.0,16.9,25.23,SSW,204,3.0,4.0,32,-99.99,,,0.00,meteohub,2014-02-09 21:37:00,
2014-02-09 13:38:00,45.0,16.2,25.23,WNW,294,3.0,4.0,31,-99.99,,,0.00,meteohub,2014-02-09 21:38:00,
2014-02-09 13:39:00,44.8,16.0,25.23,West,281,2.0,4.0,31,-99.99,,,0.00,meteohub,2014-02-09 21:39:00,
2014-02-09 13:44:00,44.8,16.0,25.23,West,270,5.0,6.0,31,0.00,,,0.00,meteohub,2014-02-09 21:44:00,
2014-02-09 13:46:00,44.6,15.8,25.23,SW,231,3.0,8.0,31,0.00,,,0.00,meteohub,2014-02-09 21:46:00,
2014-02-09 13:47:00,44.6,15.8,25.23,WSW,253,2.0,8.0,31,0.00,,,0.00,meteohub,2014-02-09 21:47:00,
2014-02-09 13:51:00,44.6,15.8,25.23,SW,225,3.0,8.0,31,0.00,,,0.00,meteohub,2014-02-09 21:51:00,
2014-02-09 13:52:00,44.6,15.8,25.23,SSW,212,5.0,8.0,31,0.00,,,0.00,meteohub,2014-02-09 21:52:00,
2014-02-09 13:53:00,44.6,16.5,25.23,WSW,246,4.0,8.0,32,0.00,,,0.00,meteohub,2014-02-09 21:53:00,
2014-02-09 13:54:00,44.4,16.3,25.23,West,270,5.0,8.0,32,0.00,,,0.00,meteohub,2014-02-09 21:54:00,
2014-02-09 13:58:00,44.2,16.2,25.23,WNW,289,3.0,8.0,32,0.00,,,0.00,meteohub,2014-02-09 21:58:00,
2014-02-09 13:59:00,44.2,16.2,25.23,WSW,254,5.0,8.0,32,0.00,,,0.00,meteohub,2014-02-09 21:59:00,
2014-02-09 14:00:00,44.2,16.2,25.23,SSW,213,5.0,7.0,32,0.00,,,0.00,meteohub,2014-02-09 22:00:00,
2014-02-09 14:04:00,43.9,16.0,25.23,West,264,6.0,7.0,32,0.00,,,0.00,meteohub,2014-02-09 22:04:00,
2014-02-09 14:05:00,43.9,16.0,25.23,WNW,283,6.0,8.0,32,0.00,,,0.00,meteohub,2014-02-09 22:05:00,
2014-02-09 14:06:00,43.7,15.8,25.23,WSW,258,4.0,8.0,32,0.00,,,0.00,meteohub,2014-02-09 22:06:00,
2014-02-09 14:09:00,43.7,15.8,25.23,SSW,208,3.0,8.0,32,0.00,,,0.00,meteohub,2014-02-09 22:09:00,
2014-02-09 14:10:00,43.7,15.8,25.23,SW,217,3.0,8.0,32,0.00,,,0.00,meteohub,2014-02-09 22:10:00,
2014-02-09 14:11:00,43.5,16.3,25.23,SSW,209,3.0,8.0,33,0.00,,,0.00,meteohub,2014-02-09 22:11:00,
2014-02-09 14:13:00,43.5,16.3,25.23,WSW,247,4.0,8.0,33,0.00,,,0.00,meteohub,2014-02-09 22:13:00,
2014-02-09 14:14:00,43.5,16.3,25.23,SW,214,4.0,8.0,33,0.00,,,0.00,meteohub,2014-02-09 22:14:00,
2014-02-09 14:15:00,43.5,16.3,25.23,West,278,2.0,8.0,33,0.00,,,0.00,meteohub,2014-02-09 22:15:00,
2014-02-09 14:16:00,43.3,16.2,25.23,WSW,244,6.0,8.0,33,0.00,,,0.00,meteohub,2014-02-09 22:16:00,
2014-02-09 14:17:00,43.3,16.2,25.23,WSW,244,3.0,8.0,33,0.00,,,0.00,meteohub,2014-02-09 22:17:00,
2014-02-09 14:18:00,43.3,16.2,25.23,West,261,2.0,8.0,33,0.00,,,0.00,meteohub,2014-02-09 22:18:00,
2014-02-09 14:19:00,43.3,16.2,25.23,SW,225,3.0,8.0,33,0.00,,,0.00,meteohub,2014-02-09 22:19:00,
2014-02-09 14:22:00,43.2,16.0,25.23,West,266,3.0,8.0,33,0.00,,,0.00,meteohub,2014-02-09 22:22:00,
2014-02-09 14:23:00,43.2,16.0,25.23,South,179,4.0,8.0,33,0.00,,,0.00,meteohub,2014-02-09 22:23:00,
2014-02-09 14:24:00,43.2,16.0,25.23,SSW,207,3.0,8.0,33,0.00,,,0.00,meteohub,2014-02-09 22:24:00,
2014-02-09 14:25:00,43.2,16.0,25.23,West,264,4.0,8.0,33,0.00,,,0.00,meteohub,2014-02-09 22:25:00,
2014-02-09 14:26:00,43.0,15.8,25.23,West,278,0.0,6.0,33,0.00,,,0.00,meteohub,2014-02-09 22:26:00,
2014-02-09 14:27:00,43.0,15.8,25.23,South,179,3.0,6.0,33,0.00,,,0.00,meteohub,2014-02-09 22:27:00,
2014-02-09 14:28:00,43.0,15.8,25.23,West,261,4.0,6.0,33,0.00,,,0.00,meteohub,2014-02-09 22:28:00,
2014-02-09 14:30:00,43.0,15.8,25.23,SW,233,3.0,6.0,33,0.00,,,0.00,meteohub,2014-02-09 22:30:00,
2014-02-09 14:31:00,43.0,15.8,25.23,SW,230,4.0,6.0,33,0.00,,,0.00,meteohub,2014-02-09 22:31:00,
2014-02-09 14:32:00,42.8,15.6,25.23,SSE,162,2.0,6.0,33,0.00,,,0.00,meteohub,2014-02-09 22:32:00,
2014-02-09 14:35:00,42.8,15.6,25.23,SW,222,5.0,5.0,33,0.00,,,0.00,meteohub,2014-02-09 22:35:00,
2014-02-09 14:36:00,42.8,15.6,25.23,WSW,240,3.0,5.0,33,0.00,,,0.00,meteohub,2014-02-09 22:36:00,
2014-02-09 14:37:00,42.8,15.6,25.23,SW,215,2.0,5.0,33,0.00,,,0.00,meteohub,2014-02-09 22:37:00,
2014-02-09 14:38:00,42.8,15.6,25.23,WSW,237,6.0,6.0,33,0.00,,,0.00,meteohub,2014-02-09 22:38:00,
2014-02-09 14:42:00,42.6,16.2,25.20,West,265,2.0,6.0,34,0.00,,,0.00,meteohub,2014-02-09 22:42:00,
2014-02-09 14:43:00,42.6,16.2,25.20,SSW,212,3.0,6.0,34,0.00,,,0.00,meteohub,2014-02-09 22:43:00,
2014-02-09 14:47:00,42.6,16.2,25.20,SSE,165,4.0,6.0,34,0.00,,,0.00,meteohub,2014-02-09 22:47:00,
2014-02-09 14:48:00,42.6,16.2,25.20,West,260,3.0,6.0,34,0.00,,,0.00,meteohub,2014-02-09 22:48:00,
2014-02-09 14:49:00,42.6,16.2,25.20,SW,216,4.0,6.0,34,0.00,,,0.00,meteohub,2014-02-09 22:49:00,
2014-02-09 14:52:00,42.4,16.0,25.20,West,262,4.0,6.0,34,0.00,,,0.00,meteohub,2014-02-09 22:52:00,
2014-02-09 14:53:00,42.4,16.0,25.20,WSW,252,3.0,6.0,34,0.00,,,0.00,meteohub,2014-02-09 22:53:00,
2014-02-09 14:54:00,42.4,16.0,25.23,West,277,4.0,6.0,34,0.00,,,0.00,meteohub,2014-02-09 22:54:00,
2014-02-09 14:55:00,42.4,16.0,25.23,WSW,243,3.0,5.0,34,0.00,,,0.00,meteohub,2014-02-09 22:55:00,
2014-02-09 14:57:00,42.4,16.7,25.23,WSW,248,0.0,5.0,35,0.00,,,0.00,meteohub,2014-02-09 22:57:00,
2014-02-09 14:59:00,42.4,16.7,25.23,WSW,252,0.0,5.0,35,0.00,,,0.00,meteohub,2014-02-09 22:59:00,
2014-02-09 15:00:00,42.4,16.7,25.23,West,272,4.0,5.0,35,-99.99,,,0.00,meteohub,2014-02-09 23:00:00,
2014-02-09 15:01:00,42.4,16.7,25.23,WSW,248,5.0,5.0,35,-99.99,,,0.00,meteohub,2014-02-09 23:01:00,
2014-02-09 15:02:00,42.4,16.7,25.23,WSW,244,4.0,5.0,35,-99.99,,,0.00,meteohub,2014-02-09 23:02:00,
2014-02-09 15:03:00,42.4,16.7,25.23,SW,235,4.0,5.0,35,-99.99,,,0.00,meteohub,2014-02-09 23:03:00,
2014-02-09 15:05:00,42.3,16.5,25.23,WSW,241,5.0,5.0,35,-99.99,,,0.00,meteohub,2014-02-09 23:05:00,
2014-02-09 15:07:00,42.3,16.5,25.23,SSW,202,2.0,5.0,35,-99.99,,,0.00,meteohub,2014-02-09 23:07:00,
2014-02-09 15:09:00,42.3,16.5,25.23,West,260,3.0,5.0,35,-99.99,,,0.00,meteohub,2014-02-09 23:09:00,
2014-02-09 15:11:00,42.3,17.2,25.23,West,270,4.0,5.0,36,-99.99,,,0.00,meteohub,2014-02-09 23:11:00,
2014-02-09 15:12:00,42.3,17.2,25.23,West,266,3.0,5.0,36,-99.99,,,0.00,meteohub,2014-02-09 23:12:00,
2014-02-09 15:14:00,42.3,17.2,25.23,West,262,5.0,5.0,36,-99.99,,,0.00,meteohub,2014-02-09 23:14:00,
2014-02-09 15:16:00,42.1,17.1,25.23,WSW,252,3.0,6.0,36,-99.99,,,0.00,meteohub,2014-02-09 23:16:00,
2014-02-09 15:17:00,42.1,17.1,25.23,WSW,245,4.0,6.0,36,-99.99,,,0.00,meteohub,2014-02-09 23:17:00,
2014-02-09 15:21:00,42.1,17.1,25.23,West,268,5.0,8.0,36,-99.99,,,0.00,meteohub,2014-02-09 23:21:00,
2014-02-09 15:22:00,42.1,17.1,25.23,West,268,2.0,8.0,36,-99.99,,,0.00,meteohub,2014-02-09 23:22:00,
2014-02-09 15:24:00,41.9,16.9,25.23,WSW,253,3.0,8.0,36,-99.99,,,0.00,meteohub,2014-02-09 23:24:00,
2014-02-09 15:26:00,41.9,17.6,25.23,West,275,3.0,8.0,37,-99.99,,,0.00,meteohub,2014-02-09 23:26:00,
2014-02-09 15:27:00,41.9,17.6,25.23,West,265,2.0,8.0,37,-99.99,,,0.00,meteohub,2014-02-09 23:27:00,
2014-02-09 15:31:00,41.7,17.4,25.23,SW,227,0.0,8.0,37,-99.99,,,0.00,meteohub,2014-02-09 23:31:00,
2014-02-09 15:32:00,41.7,17.4,25.23,West,259,3.0,8.0,37,-99.99,,,0.00,meteohub,2014-02-09 23:32:00,
2014-02-09 15:34:00,41.7,17.4,25.23,West,266,3.0,8.0,37,-99.99,,,0.00,meteohub,2014-02-09 23:34:00,
2014-02-09 15:37:00,41.7,18.0,25.23,SSW,212,3.0,7.0,38,-99.99,,,0.00,meteohub,2014-02-09 23:37:00,
2014-02-09 15:38:00,41.7,18.0,25.23,WSW,241,3.0,7.0,38,-99.99,,,0.00,meteohub,2014-02-09 23:38:00,
2014-02-09 15:39:00,41.5,17.8,25.23,West,264,2.0,7.0,38,-99.99,,,0.00,meteohub,2014-02-09 23:39:00,
2014-02-09 15:42:00,41.5,17.8,25.23,SW,226,2.0,6.0,38,-99.99,,,0.00,meteohub,2014-02-09 23:42:00,
2014-02-09 15:44:00,41.5,17.8,25.23,West,260,0.0,6.0,38,-99.99,,,0.00,meteohub,2014-02-09 23:44:00,
2014-02-09 15:45:00,41.5,17.8,25.23,West,260,0.0,6.0,38,-99.99,,,0.00,meteohub,2014-02-09 23:45:00,
2014-02-09 15:46:00,41.4,17.6,25.23,West,260,0.0,6.0,38,-99.99,,,0.00,meteohub,2014-02-09 23:46:00,
2014-02-09 15:47:00,41.4,17.6,25.23,SW,235,2.0,6.0,38,-99.99,,,0.00,meteohub,2014-02-09 23:47:00,
2014-02-09 15:51:00,41.2,17.4,25.23,WSW,248,0.0,6.0,38,-99.99,,,0.00,meteohub,2014-02-09 23:51:00,
2014-02-09 15:52:00,41.2,17.4,25.23,WSW,248,0.0,6.0,38,-99.99,,,0.00,meteohub,2014-02-09 23:52:00,
2014-02-09 15:53:00,41.2,17.4,25.23,WSW,248,2.0,6.0,38,-99.99,,,0.00,meteohub,2014-02-09 23:53:00,
2014-02-09 15:54:00,41.2,17.4,25.23,WSW,252,0.0,6.0,38,-99.99,,,0.00,meteohub,2014-02-09 23:54:00,
2014-02-09 15:55:00,41.2,17.4,25.23,WSW,241,3.0,4.0,38,-99.99,,,0.00,meteohub,2014-02-09 23:55:00,
2014-02-09 15:56:00,41.0,17.4,25.23,WSW,241,2.0,4.0,38,-99.99,,,0.00,meteohub,2014-02-09 23:56:00,
2014-02-09 15:58:00,41.0,17.4,25.23,WSW,241,0.0,4.0,38,-99.99,,,0.00,meteohub,2014-02-09 23:58:00,
2014-02-09 16:00:00,41.0,17.4,25.23,SW,230,0.0,4.0,38,0.00,,,0.00,meteohub,2014-02-10 00:00:00,
2014-02-09 16:02:00,41.0,17.4,25.23,SW,230,0.0,4.0,38,0.00,,,0.00,meteohub,2014-02-10 00:02:00,
2014-02-09 16:05:00,40.8,17.8,25.23,SW,225,0.0,4.0,39,0.00,,,0.00,meteohub,2014-02-10 00:05:00,
2014-02-09 16:06:00,40.8,17.8,25.23,SSW,200,4.0,4.0,39,0.00,,,0.00,meteohub,2014-02-10 00:06:00,
2014-02-09 16:07:00,40.8,17.8,25.23,SSW,200,4.0,4.0,39,0.00,,,0.00,meteohub,2014-02-10 00:07:00,
2014-02-09 16:12:00,40.6,17.6,25.23,South,182,0.0,4.0,39,0.00,,,0.00,meteohub,2014-02-10 00:12:00,
2014-02-09 16:13:00,40.6,17.6,25.23,South,182,2.0,4.0,39,0.00,,,0.00,meteohub,2014-02-10 00:13:00,
2014-02-09 16:14:00,40.6,17.6,25.23,South,182,0.0,4.0,39,0.00,,,0.00,meteohub,2014-02-10 00:14:00,
2014-02-09 16:15:00,40.5,17.4,25.23,South,182,0.0,4.0,39,0.00,,,0.00,meteohub,2014-02-10 00:15:00,
2014-02-09 16:17:00,40.5,17.4,25.23,South,181,2.0,4.0,39,0.00,,,0.00,meteohub,2014-02-10 00:17:00,
2014-02-09 16:21:00,40.5,17.4,25.23,South,189,0.0,4.0,39,0.00,,,0.00,meteohub,2014-02-10 00:21:00,
2014-02-09 16:22:00,40.5,17.4,25.23,South,189,0.0,4.0,39,0.00,,,0.00,meteohub,2014-02-10 00:22:00,
2014-02-09 16:23:00,40.3,17.2,25.23,South,189,0.0,4.0,39,0.00,,,0.00,meteohub,2014-02-10 00:23:00,
2014-02-09 16:24:00,40.3,17.2,25.23,South,189,0.0,4.0,39,0.00,,,0.00,meteohub,2014-02-10 00:24:00,
2014-02-09 16:25:00,40.3,17.2,25.23,South,189,0.0,3.0,39,0.00,,,0.00,meteohub,2014-02-10 00:25:00,
2014-02-09 16:29:00,40.3,17.2,25.23,South,188,3.0,3.0,39,0.00,,,0.00,meteohub,2014-02-10 00:29:00,
2014-02-09 16:30:00,40.3,17.2,25.23,South,188,3.0,3.0,39,0.00,,,0.00,meteohub,2014-02-10 00:30:00,
2014-02-09 16:31:00,40.3,17.2,25.23,South,188,0.0,3.0,39,0.00,,,0.00,meteohub,2014-02-10 00:31:00,
2014-02-09 16:35:00,40.1,17.1,25.23,South,188,0.0,3.0,39,0.00,,,0.00,meteohub,2014-02-10 00:35:00,
2014-02-09 16:36:00,40.1,17.1,25.23,South,188,0.0,3.0,39,0.00,,,0.00,meteohub,2014-02-10 00:36:00,
2014-02-09 16:37:00,40.1,17.1,25.23,South,188,3.0,3.0,39,0.00,,,0.00,meteohub,2014-02-10 00:37:00,
2014-02-09 16:38:00,40.1,17.1,25.23,South,188,2.0,3.0,39,0.00,,,0.00,meteohub,2014-02-10 00:38:00,
2014-02-09 16:40:00,39.9,16.9,25.23,South,188,0.0,3.0,39,0.00,,,0.00,meteohub,2014-02-10 00:40:00,
2014-02-09 16:42:00,39.9,16.9,25.23,South,188,0.0,3.0,39,0.00,,,0.00,meteohub,2014-02-10 00:42:00,
2014-02-09 16:44:00,39.9,16.9,25.23,South,188,0.0,3.0,39,0.00,,,0.00,meteohub,2014-02-10 00:44:00,
2014-02-09 16:45:00,39.9,16.9,25.23,South,188,0.0,3.0,39,0.00,,,0.00,meteohub,2014-02-10 00:45:00,
2014-02-09 16:47:00,39.9,16.9,25.23,South,188,2.0,3.0,39,0.00,,,0.00,meteohub,2014-02-10 00:47:00,
2014-02-09 16:48:00,39.7,16.9,25.23,South,188,2.0,3.0,39,0.00,,,0.00,meteohub,2014-02-10 00:48:00,
2014-02-09 16:51:00,39.7,16.9,25.23,South,188,2.0,3.0,39,0.00,,,0.00,meteohub,2014-02-10 00:51:00,
2014-02-09 16:52:00,39.7,16.9,25.23,South,189,3.0,3.0,39,0.00,,,0.00,meteohub,2014-02-10 00:52:00,
2014-02-09 16:53:00,39.6,16.7,25.23,WSW,254,3.0,3.0,39,0.00,,,0.00,meteohub,2014-02-10 00:53:00,
2014-02-09 16:54:00,39.6,16.7,25.23,WSW,254,2.0,3.0,39,0.00,,,0.00,meteohub,2014-02-10 00:54:00,
2014-02-09 16:57:00,39.6,17.2,25.23,SW,227,3.0,3.0,40,0.00,,,0.00,meteohub,2014-02-10 00:57:00,
2014-02-09 16:58:00,39.6,17.2,25.23,SW,214,0.0,3.0,40,0.00,,,0.00,meteohub,2014-02-10 00:58:00,
2014-02-09 16:59:00,39.6,17.2,25.23,SW,214,2.0,3.0,40,0.00,,,0.00,meteohub,2014-02-10 00:59:00,
2014-02-09 17:00:00,39.6,17.2,25.23,SSW,213,3.0,3.0,40,0.00,,,0.00,meteohub,2014-02-10 01:00:00,
2014-02-09 17:01:00,39.4,17.1,25.23,SSW,213,2.0,3.0,40,0.00,,,0.00,meteohub,2014-02-10 01:01:00,
2014-02-09 17:02:00,39.4,17.1,25.23,SSW,213,2.0,3.0,40,0.00,,,0.00,meteohub,2014-02-10 01:02:00,
2014-02-09 17:07:00,39.2,16.9,25.23,SSW,213,0.0,3.0,40,0.00,,,0.00,meteohub,2014-02-10 01:07:00,
2014-02-09 17:08:00,39.2,16.9,25.23,SSW,213,3.0,3.0,40,0.00,,,0.00,meteohub,2014-02-10 01:08:00,
2014-02-09 17:09:00,39.2,16.9,25.23,SSW,213,3.0,3.0,40,0.00,,,0.00,meteohub,2014-02-10 01:09:00,
2014-02-09 17:10:00,39.2,16.9,25.23,SSW,213,2.0,3.0,40,0.00,,,0.00,meteohub,2014-02-10 01:10:00,
2014-02-09 17:12:00,39.0,16.7,25.23,SSW,213,0.0,3.0,40,0.00,,,0.00,meteohub,2014-02-10 01:12:00,
2014-02-09 17:13:00,39.0,16.7,25.23,SSW,213,0.0,3.0,40,0.00,,,0.00,meteohub,2014-02-10 01:13:00,
2014-02-09 17:14:00,38.8,16.5,25.23,SSW,213,0.0,3.0,40,0.00,,,0.00,meteohub,2014-02-10 01:14:00,
2014-02-09 17:15:00,38.8,16.5,25.23,SSW,213,0.0,3.0,40,-99.99,,,0.00,meteohub,2014-02-10 01:15:00,
2014-02-09 17:17:00,38.7,17.1,25.23,SSW,213,0.0,3.0,41,-99.99,,,0.00,meteohub,2014-02-10 01:17:00,
2014-02-09 17:18:00,38.7,17.1,25.23,SSW,213,0.0,3.0,41,-99.99,,,0.00,meteohub,2014-02-10 01:18:00,
2014-02-09 17:19:00,38.7,17.1,25.23,SSW,213,2.0,3.0,41,-99.99,,,0.00,meteohub,2014-02-10 01:19:00,
2014-02-09 17:20:00,38.5,16.9,25.23,SSW,213,3.0,3.0,41,-99.99,,,0.00,meteohub,2014-02-10 01:20:00,
2014-02-09 17:21:00,38.5,16.9,25.23,SSW,213,0.0,3.0,41,-99.99,,,0.00,meteohub,2014-02-10 01:21:00,
2014-02-09 17:25:00,38.1,16.5,25.20,SSW,213,0.0,3.0,41,-99.99,,,0.00,meteohub,2014-02-10 01:25:00,
2014-02-09 17:26:00,38.1,16.5,25.20,SSW,213,0.0,3.0,41,-99.99,,,0.00,meteohub,2014-02-10 01:26:00,
2014-02-09 17:27:00,38.1,16.5,25.20,SSW,213,0.0,3.0,41,-99.99,,,0.00,meteohub,2014-02-10 01:27:00,
2014-02-09 17:28:00,38.1,16.5,25.20,SSW,213,0.0,3.0,41,-99.99,,,0.00,meteohub,2014-02-10 01:28:00,
2014-02-09 17:29:00,38.1,16.5,25.20,SSW,213,0.0,3.0,41,-99.99,,,0.00,meteohub,2014-02-10 01:29:00,
2014-02-09 17:32:00,37.9,16.9,25.20,SSW,213,0.0,3.0,42,-99.99,,,0.00,meteohub,2014-02-10 01:32:00,
2014-02-09 17:34:00,37.8,16.7,25.20,SSW,213,0.0,3.0,42,-99.99,,,0.00,meteohub,2014-02-10 01:34:00,
2014-02-09 17:35:00,37.8,16.7,25.20,SSW,213,0.0,3.0,42,-99.99,,,0.00,meteohub,2014-02-10 01:35:00,
2014-02-09 17:40:00,37.6,16.5,25.23,SSW,213,0.0,0.0,42,-99.99,,,0.00,meteohub,2014-02-10 01:40:00,
2014-02-09 17:41:00,37.6,17.1,25.23,SSW,213,0.0,0.0,43,-99.99,,,0.00,meteohub,2014-02-10 01:41:00,
2014-02-09 17:42:00,37.6,17.1,25.23,SSW,213,0.0,0.0,43,-99.99,,,0.00,meteohub,2014-02-10 01:42:00,
2014-02-09 17:43:00,37.6,17.1,25.23,SSW,213,0.0,0.0,43,-99.99,,,0.00,meteohub,2014-02-10 01:43:00,
2014-02-09 17:47:00,37.6,17.1,25.23,SSW,213,0.0,0.0,43,-99.99,,,0.00,meteohub,2014-02-10 01:47:00,
2014-02-09 17:48:00,37.6,17.1,25.23,SSW,213,0.0,0.0,43,-99.99,,,0.00,meteohub,2014-02-10 01:48:00,
2014-02-09 17:50:00,37.4,16.9,25.23,SSW,213,0.0,0.0,43,-99.99,,,0.00,meteohub,2014-02-10 01:50:00,
2014-02-09 17:53:00,37.4,17.4,25.26,SSW,213,0.0,0.0,44,-99.99,,,0.00,meteohub,2014-02-10 01:53:00,
2014-02-09 17:54:00,37.4,17.4,25.26,SSW,213,0.0,0.0,44,-99.99,,,0.00,meteohub,2014-02-10 01:54:00,
2014-02-09 17:57:00,37.4,17.4,25.26,SSW,213,0.0,0.0,44,-99.99,,,0.00,meteohub,2014-02-10 01:57:00,
2014-02-09 17:58:00,37.4,17.4,25.26,SSW,213,0.0,0.0,44,-99.99,,,0.00,meteohub,2014-02-10 01:58:00,
2014-02-09 18:01:00,37.2,17.8,25.26,SSW,213,0.0,0.0,45,-99.99,,,0.00,meteohub,2014-02-10 02:01:00,
2014-02-09 18:02:00,37.2,17.8,25.26,SSW,213,0.0,0.0,45,-99.99,,,0.00,meteohub,2014-02-10 02:02:00,
2014-02-09 18:03:00,37.2,17.8,25.26,SSW,213,0.0,0.0,45,-99.99,,,0.00,meteohub,2014-02-10 02:03:00,
2014-02-09 18:04:00,37.2,17.8,25.26,SSW,213,0.0,0.0,45,-99.99,,,0.00,meteohub,2014-02-10 02:04:00,
2014-02-09 18:07:00,37.2,18.3,25.26,SSW,213,0.0,0.0,46,-99.99,,,0.00,meteohub,2014-02-10 02:07:00,
2014-02-09 18:10:00,37.0,18.1,25.26,SSW,213,0.0,0.0,46,-99.99,,,0.00,meteohub,2014-02-10 02:10:00,
2014-02-09 18:11:00,37.0,18.1,25.26,SSW,213,0.0,0.0,46,-99.99,,,0.00,meteohub,2014-02-10 02:11:00,
2014-02-09 18:12:00,37.0,18.1,25.26,SSW,213,0.0,0.0,46,-99.99,,,0.00,meteohub,2014-02-10 02:12:00,
2014-02-09 18:14:00,37.0,18.7,25.26,SSW,213,0.0,0.0,47,-99.99,,,0.00,meteohub,2014-02-10 02:14:00,
2014-02-09 18:18:00,37.0,18.7,25.26,SSW,213,0.0,0.0,47,-99.99,,,0.00,meteohub,2014-02-10 02:18:00,
2014-02-09 18:19:00,36.9,18.5,25.26,SSW,213,0.0,0.0,47,-99.99,,,0.00,meteohub,2014-02-10 02:19:00,
2014-02-09 18:20:00,36.9,19.0,25.26,SSW,213,0.0,0.0,48,-99.99,,,0.00,meteohub,2014-02-10 02:20:00,
2014-02-09 18:21:00,36.9,19.0,25.26,SSW,213,0.0,0.0,48,-99.99,,,0.00,meteohub,2014-02-10 02:21:00,
2014-02-09 18:22:00,36.9,19.0,25.26,SSW,213,0.0,0.0,48,-99.99,,,0.00,meteohub,2014-02-10 02:22:00,
2014-02-09 18:23:00,36.9,19.0,25.23,SSW,213,0.0,0.0,48,-99.99,,,0.00,meteohub,2014-02-10 02:23:00,
2014-02-09 18:25:00,36.9,19.0,25.23,SSW,213,0.0,0.0,48,-99.99,,,0.00,meteohub,2014-02-10 02:25:00,
2014-02-09 18:26:00,36.9,19.4,25.23,SSW,213,0.0,0.0,49,-99.99,,,0.00,meteohub,2014-02-10 02:26:00,
2014-02-09 18:28:00,36.9,19.4,25.23,SSW,213,0.0,0.0,49,-99.99,,,0.00,meteohub,2014-02-10 02:28:00,
2014-02-09 18:31:00,36.9,19.4,25.23,SSW,213,0.0,0.0,49,-99.99,,,0.00,meteohub,2014-02-10 02:31:00,
2014-02-09 18:32:00,36.9,19.4,25.23,SSW,213,0.0,0.0,49,-99.99,,,0.00,meteohub,2014-02-10 02:32:00,
2014-02-09 18:33:00,36.9,19.4,25.23,SSW,213,0.0,0.0,49,-99.99,,,0.00,meteohub,2014-02-10 02:33:00,
2014-02-09 18:37:00,36.9,19.9,25.23,SSW,213,0.0,0.0,50,-99.99,,,0.00,meteohub,2014-02-10 02:37:00,
2014-02-09 18:38:00,36.7,19.8,25.23,SSW,213,0.0,0.0,50,-99.99,,,0.00,meteohub,2014-02-10 02:38:00,
2014-02-09 18:40:00,36.7,19.8,25.23,SSW,213,0.0,0.0,50,-99.99,,,0.00,meteohub,2014-02-10 02:40:00,
2014-02-09 18:42:00,36.7,19.8,25.23,SSW,213,0.0,0.0,50,-99.99,,,0.00,meteohub,2014-02-10 02:42:00,
2014-02-09 18:45:00,36.7,19.8,25.23,SSW,213,0.0,0.0,50,-99.99,,,0.00,meteohub,2014-02-10 02:45:00,
2014-02-09 18:46:00,36.7,19.8,25.23,SSW,212,0.0,0.0,50,-99.99,,,0.00,meteohub,2014-02-10 02:46:00,
2014-02-09 18:47:00,36.7,19.8,25.23,SSW,212,0.0,0.0,50,-99.99,,,0.00,meteohub,2014-02-10 02:47:00,
2014-02-09 18:52:00,36.7,19.8,25.23,SSW,213,0.0,0.0,50,-99.99,,,0.00,meteohub,2014-02-10 02:52:00,
2014-02-09 18:54:00,36.5,19.6,25.26,SSW,213,0.0,0.0,50,-99.99,,,0.00,meteohub,2014-02-10 02:54:00,
2014-02-09 18:55:00,36.5,19.6,25.26,SSW,213,0.0,0.0,50,-99.99,,,0.00,meteohub,2014-02-10 02:55:00,
2014-02-09 18:57:00,36.3,19.4,25.26,SSW,213,0.0,0.0,50,-99.99,,,0.00,meteohub,2014-02-10 02:57:00,
2014-02-09 19:00:00,36.3,19.9,25.26,SSW,213,0.0,0.0,51,-99.99,,,0.00,meteohub,2014-02-10 03:00:00,
2014-02-09 19:01:00,36.3,19.9,25.26,SSW,213,0.0,0.0,51,-99.99,,,0.00,meteohub,2014-02-10 03:01:00,
2014-02-09 19:02:00,36.3,19.9,25.26,SSW,213,0.0,0.0,51,-99.99,,,0.00,meteohub,2014-02-10 03:02:00,
2014-02-09 19:04:00,36.3,19.9,25.26,SSW,213,0.0,0.0,51,-99.99,,,0.00,meteohub,2014-02-10 03:04:00,
2014-02-09 19:07:00,36.3,19.9,25.26,SSW,213,0.0,0.0,51,-99.99,,,0.00,meteohub,2014-02-10 03:07:00,
2014-02-09 19:09:00,36.3,19.9,25.26,SSW,213,0.0,0.0,51,-99.99,,,0.00,meteohub,2014-02-10 03:09:00,
2014-02-09 19:10:00,36.3,19.9,25.26,SSW,213,0.0,0.0,51,-99.99,,,0.00,meteohub,2014-02-10 03:10:00,
2014-02-09 19:12:00,36.3,19.9,25.26,SSW,213,0.0,0.0,51,-99.99,,,0.00,meteohub,2014-02-10 03:12:00,
2014-02-09 19:13:00,36.3,19.9,25.26,SSW,213,0.0,0.0,51,-99.99,,,0.00,meteohub,2014-02-10 03:13:00,
2014-02-09 19:14:00,36.3,19.9,25.26,SSW,213,0.0,0.0,51,-99.99,,,0.00,meteohub,2014-02-10 03:14:00,
2014-02-09 19:15:00,36.3,19.9,25.26,SSW,213,0.0,0.0,51,-99.99,,,0.00,meteohub,2014-02-10 03:15:00,
2014-02-09 19:17:00,36.3,19.9,25.26,SSW,213,0.0,0.0,51,-99.99,,,0.00,meteohub,2014-02-10 03:17:00,
2014-02-09 19:20:00,36.1,19.8,25.26,SSW,213,0.0,0.0,51,-99.99,,,0.00,meteohub,2014-02-10 03:20:00,
2014-02-09 19:21:00,36.1,19.8,25.26,SSW,213,0.0,0.0,51,-99.99,,,0.00,meteohub,2014-02-10 03:21:00,
2014-02-09 19:22:00,36.1,19.8,25.26,SSW,213,0.0,0.0,51,-99.99,,,0.00,meteohub,2014-02-10 03:22:00,
2014-02-09 19:25:00,36.1,20.3,25.26,SSW,213,0.0,0.0,52,-99.99,,,0.00,meteohub,2014-02-10 03:25:00,
2014-02-09 19:26:00,36.1,20.3,25.26,SSW,213,0.0,0.0,52,-99.99,,,0.00,meteohub,2014-02-10 03:26:00,
2014-02-09 19:27:00,36.1,20.3,25.26,SSW,213,0.0,0.0,52,-99.99,,,0.00,meteohub,2014-02-10 03:27:00,
2014-02-09 19:28:00,36.1,20.3,25.26,SSW,213,0.0,0.0,52,-99.99,,,0.00,meteohub,2014-02-10 03:28:00,
2014-02-09 19:30:00,36.1,20.3,25.26,SSW,213,0.0,0.0,52,-99.99,,,0.00,meteohub,2014-02-10 03:30:00,
2014-02-09 19:31:00,36.1,20.3,25.26,SSW,213,0.0,0.0,52,-99.99,,,0.00,meteohub,2014-02-10 03:31:00,
2014-02-09 19:34:00,36.1,20.3,25.26,SSW,213,0.0,0.0,52,-99.99,,,0.00,meteohub,2014-02-10 03:34:00,
2014-02-09 19:37:00,36.1,20.3,25.26,SSW,213,0.0,0.0,52,-99.99,,,0.00,meteohub,2014-02-10 03:37:00,
2014-02-09 19:38:00,36.1,20.3,25.26,SSW,213,0.0,0.0,52,-99.99,,,0.00,meteohub,2014-02-10 03:38:00,
2014-02-09 19:40:00,36.1,20.3,25.26,SSW,213,0.0,0.0,52,-99.99,,,0.00,meteohub,2014-02-10 03:40:00,
2014-02-09 19:41:00,36.1,20.7,25.26,SSW,213,0.0,0.0,53,-99.99,,,0.00,meteohub,2014-02-10 03:41:00,
2014-02-09 19:43:00,36.0,20.5,25.26,SSW,213,2.0,0.0,53,-99.99,,,0.00,meteohub,2014-02-10 03:43:00,
2014-02-09 19:45:00,36.0,20.5,25.26,SSW,212,3.0,0.0,53,-99.99,,,0.00,meteohub,2014-02-10 03:45:00,
2014-02-09 19:46:00,35.8,20.3,25.26,SSW,212,0.0,3.0,53,-99.99,,,0.00,meteohub,2014-02-10 03:46:00,
2014-02-09 19:48:00,35.8,20.3,25.26,SSW,212,0.0,3.0,53,-99.99,,,0.00,meteohub,2014-02-10 03:48:00,
2014-02-09 19:50:00,35.8,20.3,25.26,SSW,212,0.0,3.0,53,-99.99,,,0.00,meteohub,2014-02-10 03:50:00,
2014-02-09 19:52:00,35.6,20.1,25.26,SSW,212,0.0,3.0,53,-99.99,,,0.00,meteohub,2014-02-10 03:52:00,
2014-02-09 19:54:00,35.6,20.1,25.26,SSW,212,0.0,3.0,53,-99.99,,,0.00,meteohub,2014-02-10 03:54:00,
2014-02-09 19:56:00,35.6,20.7,25.26,SSW,212,0.0,3.0,54,-99.99,,,0.00,meteohub,2014-02-10 03:56:00,
2014-02-09 19:57:00,35.6,20.7,25.26,SSW,212,0.0,3.0,54,-99.99,,,0.00,meteohub,2014-02-10 03:57:00,
2014-02-09 20:01:00,35.4,20.5,25.26,SSW,212,0.0,2.0,54,-99.99,,,0.00,meteohub,2014-02-10 04:01:00,
2014-02-09 20:02:00,35.4,20.5,25.26,SSW,212,0.0,2.0,54,-99.99,,,0.00,meteohub,2014-02-10 04:02:00,
2014-02-09 20:03:00,35.4,20.5,25.26,SSW,212,0.0,2.0,54,-99.99,,,0.00,meteohub,2014-02-10 04:03:00,
2014-02-09 20:04:00,35.4,20.5,25.26,SSW,212,0.0,2.0,54,-99.99,,,0.00,meteohub,2014-02-10 04:04:00,
2014-02-09 20:08:00,35.4,20.8,25.26,SSW,212,0.0,0.0,55,-99.99,,,0.00,meteohub,2014-02-10 04:08:00,
2014-02-09 20:11:00,35.4,20.8,25.26,SSW,212,0.0,0.0,55,-99.99,,,0.00,meteohub,2014-02-10 04:11:00,
2014-02-09 20:12:00,35.4,20.8,25.26,SSW,212,0.0,0.0,55,-99.99,,,0.00,meteohub,2014-02-10 04:12:00,
2014-02-09 20:13:00,35.4,20.8,25.26,SSW,212,0.0,0.0,55,-99.99,,,0.00,meteohub,2014-02-10 04:13:00,
2014-02-09 20:15:00,35.4,20.8,25.26,SSW,212,0.0,0.0,55,-99.99,,,0.00,meteohub,2014-02-10 04:15:00,
2014-02-09 20:17:00,35.4,20.8,25.26,SSW,212,0.0,0.0,55,-99.99,,,0.00,meteohub,2014-02-10 04:17:00,
2014-02-09 20:20:00,35.4,20.8,25.26,SSW,212,0.0,0.0,55,-99.99,,,0.00,meteohub,2014-02-10 04:20:00,
2014-02-09 20:21:00,35.4,20.8,25.26,SSW,212,0.0,0.0,55,-99.99,,,0.00,meteohub,2014-02-10 04:21:00,
2014-02-09 20:23:00,35.4,20.8,25.29,SSW,212,0.0,0.0,55,-99.99,,,0.00,meteohub,2014-02-10 04:23:00,
2014-02-09 20:24:00,35.4,20.8,25.29,SSW,212,0.0,0.0,55,-99.99,,,0.00,meteohub,2014-02-10 04:24:00,
2014-02-09 20:25:00,35.4,20.8,25.29,SSW,212,0.0,0.0,55,-99.99,,,0.00,meteohub,2014-02-10 04:25:00,
2014-02-09 20:26:00,35.4,20.8,25.29,SSW,212,0.0,0.0,55,-99.99,,,0.00,meteohub,2014-02-10 04:26:00,
2014-02-09 20:29:00,35.4,20.8,25.29,SSW,212,0.0,0.0,55,-99.99,,,0.00,meteohub,2014-02-10 04:29:00,
2014-02-09 20:30:00,35.4,20.8,25.29,SSW,212,0.0,0.0,55,-99.99,,,0.00,meteohub,2014-02-10 04:30:00,
2014-02-09 20:31:00,35.4,20.8,25.29,SSW,212,0.0,0.0,55,-99.99,,,0.00,meteohub,2014-02-10 04:31:00,
2014-02-09 20:34:00,35.4,20.8,25.29,SSW,212,0.0,0.0,55,-99.99,,,0.00,meteohub,2014-02-10 04:34:00,
2014-02-09 20:35:00,35.4,20.8,25.29,SSW,212,0.0,0.0,55,-99.99,,,0.00,meteohub,2014-02-10 04:35:00,
2014-02-09 20:37:00,35.6,21.0,25.29,SSW,212,0.0,0.0,55,-99.99,,,0.00,meteohub,2014-02-10 04:37:00,
2014-02-09 20:41:00,35.6,21.0,25.29,SSW,212,0.0,0.0,55,-99.99,,,0.00,meteohub,2014-02-10 04:41:00,
2014-02-09 20:42:00,35.6,21.0,25.29,SSW,212,0.0,0.0,55,-99.99,,,0.00,meteohub,2014-02-10 04:42:00,
2014-02-09 20:44:00,35.6,21.0,25.29,SSW,212,0.0,0.0,55,-99.99,,,0.00,meteohub,2014-02-10 04:44:00,
2014-02-09 20:45:00,35.6,21.0,25.29,SSW,212,0.0,0.0,55,-99.99,,,0.00,meteohub,2014-02-10 04:45:00,
2014-02-09 20:46:00,35.6,21.0,25.29,SSW,212,0.0,0.0,55,-99.99,,,0.00,meteohub,2014-02-10 04:46:00,
2014-02-09 20:47:00,35.6,21.0,25.29,SSW,212,0.0,0.0,55,-99.99,,,0.00,meteohub,2014-02-10 04:47:00,
2014-02-09 20:52:00,35.4,20.8,25.29,SSW,212,0.0,0.0,55,-99.99,,,0.00,meteohub,2014-02-10 04:52:00,
2014-02-09 20:53:00,35.4,20.8,25.29,SSW,212,0.0,0.0,55,-99.99,,,0.00,meteohub,2014-02-10 04:53:00,
2014-02-09 20:55:00,35.4,20.8,25.29,SSW,212,0.0,0.0,55,-99.99,,,0.00,meteohub,2014-02-10 04:55:00,
2014-02-09 20:57:00,35.4,20.8,25.29,SSW,212,0.0,0.0,55,-99.99,,,0.00,meteohub,2014-02-10 04:57:00,
2014-02-09 20:59:00,35.4,20.8,25.29,SSW,212,0.0,0.0,55,-99.99,,,0.00,meteohub,2014-02-10 04:59:00,
2014-02-09 21:00:00,35.4,20.8,25.29,SSW,212,0.0,0.0,55,-99.99,,,0.00,meteohub,2014-02-10 05:00:00,
2014-02-09 21:01:00,35.4,20.8,25.29,SSW,212,0.0,0.0,55,-99.99,,,0.00,meteohub,2014-02-10 05:01:00,
2014-02-09 21:02:00,35.4,20.8,25.29,SSW,212,0.0,0.0,55,-99.99,,,0.00,meteohub,2014-02-10 05:02:00,
2014-02-09 21:04:00,35.4,21.2,25.29,SSW,212,0.0,0.0,56,-99.99,,,0.00,meteohub,2014-02-10 05:04:00,
2014-02-09 21:06:00,35.4,21.2,25.29,SSW,212,0.0,0.0,56,-99.99,,,0.00,meteohub,2014-02-10 05:06:00,
2014-02-09 21:07:00,35.2,21.2,25.29,SSW,212,0.0,0.0,56,-99.99,,,0.00,meteohub,2014-02-10 05:07:00,
2014-02-09 21:09:00,35.2,21.2,25.29,SSW,212,0.0,0.0,56,-99.99,,,0.00,meteohub,2014-02-10 05:09:00,
2014-02-09 21:10:00,35.2,21.2,25.29,SSW,212,0.0,0.0,56,-99.99,,,0.00,meteohub,2014-02-10 05:10:00,
2014-02-09 21:12:00,35.2,21.2,25.29,SSW,212,0.0,0.0,56,-99.99,,,0.00,meteohub,2014-02-10 05:12:00,
2014-02-09 21:15:00,35.2,21.2,25.29,SSW,212,0.0,0.0,56,-99.99,,,0.00,meteohub,2014-02-10 05:15:00,
2014-02-09 21:16:00,35.1,21.0,25.29,SSW,212,0.0,0.0,56,-99.99,,,0.00,meteohub,2014-02-10 05:16:00,
2014-02-09 21:17:00,35.1,21.0,25.29,SSW,212,0.0,0.0,56,-99.99,,,0.00,meteohub,2014-02-10 05:17:00,
2014-02-09 21:18:00,35.1,21.0,25.29,SSW,212,0.0,0.0,56,-99.99,,,0.00,meteohub,2014-02-10 05:18:00,
2014-02-09 21:19:00,35.1,21.0,25.29,SSW,212,0.0,0.0,56,-99.99,,,0.00,meteohub,2014-02-10 05:19:00,
2014-02-09 21:21:00,35.1,21.0,25.29,SSW,212,0.0,0.0,56,-99.99,,,0.00,meteohub,2014-02-10 05:21:00,
2014-02-09 21:23:00,35.1,21.0,25.29,SSW,212,0.0,0.0,56,-99.99,,,0.00,meteohub,2014-02-10 05:23:00,
2014-02-09 21:24:00,35.1,21.0,25.29,SSW,212,0.0,0.0,56,-99.99,,,0.00,meteohub,2014-02-10 05:24:00,
2014-02-09 21:26:00,35.1,21.0,25.29,SSW,212,0.0,0.0,56,-99.99,,,0.00,meteohub,2014-02-10 05:26:00,
2014-02-09 21:28:00,35.1,21.0,25.29,SSW,212,0.0,0.0,56,-99.99,,,0.00,meteohub,2014-02-10 05:28:00,
2014-02-09 21:29:00,35.1,21.4,25.29,SSW,212,0.0,0.0,57,-99.99,,,0.00,meteohub,2014-02-10 05:29:00,
2014-02-09 21:32:00,34.9,21.2,25.29,SSW,212,0.0,0.0,57,-99.99,,,0.00,meteohub,2014-02-10 05:32:00,
2014-02-09 21:35:00,34.9,21.2,25.29,SSW,212,0.0,0.0,57,-99.99,,,0.00,meteohub,2014-02-10 05:35:00,
2014-02-09 21:37:00,34.9,21.2,25.29,SSW,212,0.0,0.0,57,-99.99,,,0.00,meteohub,2014-02-10 05:37:00,
2014-02-09 21:38:00,34.9,21.2,25.29,SSW,212,0.0,0.0,57,-99.99,,,0.00,meteohub,2014-02-10 05:38:00,
2014-02-09 21:39:00,34.9,21.2,25.29,SSW,212,0.0,0.0,57,-99.99,,,0.00,meteohub,2014-02-10 05:39:00,
2014-02-09 21:40:00,34.7,21.0,25.29,SSW,212,0.0,0.0,57,-99.99,,,0.00,meteohub,2014-02-10 05:40:00,
2014-02-09 21:43:00,34.7,21.0,25.29,SSW,212,0.0,0.0,57,-99.99,,,0.00,meteohub,2014-02-10 05:43:00,
2014-02-09 21:45:00,34.5,20.8,25.29,SSW,212,0.0,0.0,57,-99.99,,,0.00,meteohub,2014-02-10 05:45:00,
2014-02-09 21:46:00,34.5,20.8,25.29,SSW,212,0.0,0.0,57,-99.99,,,0.00,meteohub,2014-02-10 05:46:00,
2014-02-09 21:47:00,34.5,20.8,25.29,SSW,212,0.0,0.0,57,-99.99,,,0.00,meteohub,2014-02-10 05:47:00,
2014-02-09 21:50:00,34.5,20.8,25.29,SSW,212,0.0,0.0,57,-99.99,,,0.00,meteohub,2014-02-10 05:50:00,
2014-02-09 21:52:00,34.5,20.8,25.29,SSW,212,0.0,0.0,57,-99.99,,,0.00,meteohub,2014-02-10 05:52:00,
2014-02-09 21:54:00,34.5,21.2,25.29,SSW,212,0.0,0.0,58,-99.99,,,0.00,meteohub,2014-02-10 05:54:00,
2014-02-09 21:55:00,34.7,21.4,25.29,SSW,212,0.0,0.0,58,-99.99,,,0.00,meteohub,2014-02-10 05:55:00,
2014-02-09 21:56:00,34.7,21.4,25.29,SSW,212,0.0,0.0,58,-99.99,,,0.00,meteohub,2014-02-10 05:56:00,
2014-02-09 21:57:00,34.7,21.4,25.29,SSW,212,0.0,0.0,58,-99.99,,,0.00,meteohub,2014-02-10 05:57:00,
2014-02-09 22:00:00,34.7,21.4,25.29,SSW,212,0.0,0.0,58,-99.99,,,0.00,meteohub,2014-02-10 06:00:00,
2014-02-09 22:01:00,34.7,21.4,25.29,SSW,212,0.0,0.0,58,-99.99,,,0.00,meteohub,2014-02-10 06:01:00,
2014-02-09 22:02:00,34.7,21.4,25.29,SSW,212,0.0,0.0,58,-99.99,,,0.00,meteohub,2014-02-10 06:02:00,
2014-02-09 22:04:00,34.7,21.4,25.29,SSW,212,0.0,0.0,58,-99.99,,,0.00,meteohub,2014-02-10 06:04:00,
2014-02-09 22:06:00,34.9,21.6,25.29,SSW,212,0.0,0.0,58,-99.99,,,0.00,meteohub,2014-02-10 06:06:00,
2014-02-09 22:08:00,34.9,21.6,25.29,SSW,212,0.0,0.0,58,-99.99,,,0.00,meteohub,2014-02-10 06:08:00,
2014-02-09 22:09:00,34.9,21.6,25.29,SSW,212,0.0,0.0,58,-99.99,,,0.00,meteohub,2014-02-10 06:09:00,
2014-02-09 22:11:00,34.9,21.6,25.29,SSW,212,0.0,0.0,58,-99.99,,,0.00,meteohub,2014-02-10 06:11:00,
2014-02-09 22:12:00,34.9,21.6,25.29,SSW,212,0.0,0.0,58,-99.99,,,0.00,meteohub,2014-02-10 06:12:00,
2014-02-09 22:17:00,34.9,21.6,25.29,SSW,212,0.0,0.0,58,-99.99,,,0.00,meteohub,2014-02-10 06:17:00,
2014-02-09 22:18:00,34.9,21.6,25.29,SSW,212,0.0,0.0,58,-99.99,,,0.00,meteohub,2014-02-10 06:18:00,
2014-02-09 22:20:00,34.9,21.6,25.29,SSW,212,0.0,0.0,58,-99.99,,,0.00,meteohub,2014-02-10 06:20:00,
2014-02-09 22:21:00,34.9,21.6,25.29,SSW,212,0.0,0.0,58,-99.99,,,0.00,meteohub,2014-02-10 06:21:00,
2014-02-09 22:23:00,34.9,21.6,25.29,SSW,212,0.0,0.0,58,-99.99,,,0.00,meteohub,2014-02-10 06:23:00,
2014-02-09 22:24:00,34.9,21.6,25.29,SSW,212,0.0,0.0,58,-99.99,,,0.00,meteohub,2014-02-10 06:24:00,
2014-02-09 22:27:00,34.9,21.6,25.29,SSW,212,0.0,0.0,58,-99.99,,,0.00,meteohub,2014-02-10 06:27:00,
2014-02-09 22:29:00,34.7,21.4,25.29,SSW,212,0.0,0.0,58,-99.99,,,0.00,meteohub,2014-02-10 06:29:00,
2014-02-09 22:30:00,34.7,21.4,25.29,SSW,212,0.0,0.0,58,-99.99,,,0.00,meteohub,2014-02-10 06:30:00,
2014-02-09 22:31:00,34.7,21.4,25.29,SSW,212,0.0,0.0,58,-99.99,,,0.00,meteohub,2014-02-10 06:31:00,
2014-02-09 22:32:00,34.7,21.4,25.29,SSW,212,0.0,0.0,58,-99.99,,,0.00,meteohub,2014-02-10 06:32:00,
2014-02-09 22:35:00,34.7,21.9,25.29,SSW,212,0.0,0.0,59,-99.99,,,0.00,meteohub,2014-02-10 06:35:00,
2014-02-09 22:36:00,34.9,21.9,25.29,SSW,212,0.0,0.0,59,-99.99,,,0.00,meteohub,2014-02-10 06:36:00,
2014-02-09 22:40:00,34.9,21.9,25.32,SW,229,3.0,0.0,59,-99.99,,,0.00,meteohub,2014-02-10 06:40:00,
2014-02-09 22:41:00,34.9,21.9,25.32,SW,229,2.0,0.0,59,-99.99,,,0.00,meteohub,2014-02-10 06:41:00,
2014-02-09 22:42:00,34.9,21.9,25.32,SW,229,0.0,0.0,59,-99.99,,,0.00,meteohub,2014-02-10 06:42:00,
2014-02-09 22:43:00,34.9,21.9,25.32,SW,229,0.0,0.0,59,-99.99,,,0.00,meteohub,2014-02-10 06:43:00,
2014-02-09 22:46:00,34.9,21.9,25.32,SW,229,0.0,3.0,59,-99.99,,,0.00,meteohub,2014-02-10 06:46:00,
2014-02-09 22:47:00,34.9,21.9,25.32,SW,229,0.0,3.0,59,-99.99,,,0.00,meteohub,2014-02-10 06:47:00,
2014-02-09 22:48:00,35.1,22.1,25.32,SW,229,0.0,3.0,59,-99.99,,,0.00,meteohub,2014-02-10 06:48:00,
2014-02-09 22:49:00,35.1,22.1,25.32,SW,229,0.0,3.0,59,-99.99,,,0.00,meteohub,2014-02-10 06:49:00,
2014-02-09 22:50:00,35.1,22.1,25.32,SW,229,0.0,3.0,59,-99.99,,,0.00,meteohub,2014-02-10 06:50:00,
2014-02-09 22:51:00,35.1,22.1,25.32,SW,229,0.0,3.0,59,-99.99,,,0.00,meteohub,2014-02-10 06:51:00,
2014-02-09 22:52:00,35.1,22.1,25.32,SW,229,0.0,3.0,59,-99.99,,,0.00,meteohub,2014-02-10 06:52:00,
2014-02-09 22:54:00,35.1,22.1,25.32,SW,229,0.0,3.0,59,-99.99,,,0.00,meteohub,2014-02-10 06:54:00,
2014-02-09 22:56:00,35.1,22.1,25.32,SW,229,0.0,3.0,59,-99.99,,,0.00,meteohub,2014-02-10 06:56:00,
2014-02-09 22:57:00,35.1,22.1,25.32,SW,229,0.0,3.0,59,-99.99,,,0.00,meteohub,2014-02-10 06:57:00,
2014-02-09 22:59:00,35.1,22.1,25.32,SW,229,0.0,3.0,59,-99.99,,,0.00,meteohub,2014-02-10 06:59:00,
2014-02-09 23:00:00,35.1,22.1,25.32,SW,229,0.0,0.0,59,-99.99,,,0.00,meteohub,2014-02-10 07:00:00,
2014-02-09 23:01:00,35.1,22.1,25.32,SW,229,0.0,0.0,59,-99.99,,,0.00,meteohub,2014-02-10 07:01:00,
2014-02-09 23:02:00,35.1,22.1,25.32,SW,229,0.0,0.0,59,-99.99,,,0.00,meteohub,2014-02-10 07:02:00,
2014-02-09 23:03:00,35.1,22.1,25.32,SW,229,0.0,0.0,59,-99.99,,,0.00,meteohub,2014-02-10 07:03:00,
2014-02-09 23:07:00,35.1,22.1,25.32,SW,229,0.0,0.0,59,-99.99,,,0.00,meteohub,2014-02-10 07:07:00,
2014-02-09 23:08:00,35.1,22.1,25.32,SW,229,0.0,0.0,59,-99.99,,,0.00,meteohub,2014-02-10 07:08:00,
2014-02-09 23:11:00,35.1,22.1,25.32,SW,229,0.0,0.0,59,-99.99,,,0.00,meteohub,2014-02-10 07:11:00,
2014-02-09 23:12:00,35.1,22.1,25.32,SW,229,0.0,0.0,59,-99.99,,,0.00,meteohub,2014-02-10 07:12:00,
2014-02-09 23:13:00,35.1,22.1,25.32,SW,229,0.0,0.0,59,-99.99,,,0.00,meteohub,2014-02-10 07:13:00,
2014-02-09 23:16:00,35.1,22.1,25.32,SSW,212,0.0,0.0,59,-99.99,,,0.00,meteohub,2014-02-10 07:16:00,
2014-02-09 23:17:00,35.1,22.1,25.32,SSW,212,0.0,0.0,59,-99.99,,,0.00,meteohub,2014-02-10 07:17:00,
2014-02-09 23:19:00,35.1,22.1,25.32,SSW,212,0.0,0.0,59,-99.99,,,0.00,meteohub,2014-02-10 07:19:00,
2014-02-09 23:20:00,35.1,22.1,25.32,SSW,212,0.0,0.0,59,-99.99,,,0.00,meteohub,2014-02-10 07:20:00,
2014-02-09 23:22:00,35.1,22.1,25.32,SSW,212,0.0,0.0,59,-99.99,,,0.00,meteohub,2014-02-10 07:22:00,
2014-02-09 23:23:00,35.1,22.1,25.32,SSW,212,0.0,0.0,59,-99.99,,,0.00,meteohub,2014-02-10 07:23:00,
2014-02-09 23:24:00,35.1,22.1,25.32,SSW,212,0.0,0.0,59,-99.99,,,0.00,meteohub,2014-02-10 07:24:00,
2014-02-09 23:27:00,35.1,22.1,25.32,SSW,212,0.0,0.0,59,-99.99,,,0.00,meteohub,2014-02-10 07:27:00,
2014-02-09 23:28:00,34.9,21.9,25.32,SSW,212,0.0,0.0,59,-99.99,,,0.00,meteohub,2014-02-10 07:28:00,
2014-02-09 23:29:00,34.9,21.9,25.32,SSW,212,0.0,0.0,59,-99.99,,,0.00,meteohub,2014-02-10 07:29:00,
2014-02-09 23:32:00,34.9,21.9,25.32,SSW,212,0.0,0.0,59,-99.99,,,0.00,meteohub,2014-02-10 07:32:00,
2014-02-09 23:33:00,34.9,21.9,25.32,SSW,212,0.0,0.0,59,-99.99,,,0.00,meteohub,2014-02-10 07:33:00,
2014-02-09 23:34:00,34.9,21.9,25.32,SSW,212,0.0,0.0,59,-99.99,,,0.00,meteohub,2014-02-10 07:34:00,
2014-02-09 23:36:00,34.9,21.9,25.32,South,179,0.0,0.0,59,-99.99,,,0.00,meteohub,2014-02-10 07:36:00,
2014-02-09 23:37:00,34.9,21.9,25.32,South,179,0.0,0.0,59,-99.99,,,0.00,meteohub,2014-02-10 07:37:00,
2014-02-09 23:39:00,34.9,21.9,25.32,South,179,0.0,0.0,59,-99.99,,,0.00,meteohub,2014-02-10 07:39:00,
2014-02-09 23:40:00,34.9,22.5,25.32,South,179,0.0,0.0,60,-99.99,,,0.00,meteohub,2014-02-10 07:40:00,
2014-02-09 23:41:00,34.9,22.5,25.32,South,179,0.0,0.0,60,-99.99,,,0.00,meteohub,2014-02-10 07:41:00,
2014-02-09 23:42:00,34.9,22.5,25.32,South,179,0.0,0.0,60,-99.99,,,0.00,meteohub,2014-02-10 07:42:00,
2014-02-09 23:43:00,34.9,22.5,25.32,South,179,0.0,0.0,60,-99.99,,,0.00,meteohub,2014-02-10 07:43:00,
2014-02-09 23:45:00,34.9,22.5,25.32,South,179,0.0,0.0,60,-99.99,,,0.00,meteohub,2014-02-10 07:45:00,
2014-02-09 23:46:00,34.9,22.5,25.32,South,179,0.0,0.0,60,-99.99,,,0.00,meteohub,2014-02-10 07:46:00,
2014-02-09 23:47:00,34.9,22.5,25.32,South,179,0.0,0.0,60,-99.99,,,0.00,meteohub,2014-02-10 07:47:00,
2014-02-09 23:49:00,34.9,22.5,25.32,South,179,0.0,0.0,60,-99.99,,,0.00,meteohub,2014-02-10 07:49:00,
2014-02-09 23:50:00,34.9,22.5,25.32,South,179,0.0,0.0,60,-99.99,,,0.00,meteohub,2014-02-10 07:50:00,
2014-02-09 23:51:00,34.9,22.5,25.32,South,179,0.0,0.0,60,-99.99,,,0.00,meteohub,2014-02-10 07:51:00,
2014-02-09 23:53:00,34.9,22.5,25.32,South,179,0.0,0.0,60,-99.99,,,0.00,meteohub,2014-02-10 07:53:00,
2014-02-09 23:56:00,34.9,22.5,25.32,South,179,0.0,0.0,60,-99.99,,,0.00,meteohub,2014-02-10 07:56:00,